GFSFLT1_850_spd_003.txt.gz
Wind_Speed
3 1 5 5 7 7 7 6 6 6 5 4 4 4 5 6 6 7 8 10 9 10 9 13 13 11 13 14 16 16 17 19 20
2 3 3 6 5 5 7 8 8 8 7 8 7 7 7 9 10 10 10 10 11 12 13 12 13 15 15 15 16 17 18 19 19
5 5 6 4 2 4 5 6 7 7 7 7 8 8 9 10 11 12 12 11 11 11 12 14 13 16 16 15 15 17 19 20 21
7 5 5 3 2 5 6 6 6 6 6 6 6 7 8 9 9 10 10 10 10 12 13 14 14 14 17 18 18 18 18 19 20
6 4 2 1 3 4 5 4 4 5 6 7 8 10 11 12 12 11 9 9 9 9 12 12 12 14 15 17 18 20 22 22 20
4 3 1 1 2 3 5 6 7 9 10 10 10 11 12 13 12 12 10 11 11 11 11 11 12 15 16 16 16 17 19 20 23
4 2 2 1 1 3 5 7 8 11 14 14 13 13 13 14 13 12 9 11 13 12 11 15 17 19 20 22 22 23 21 20 19
4 3 1 2 5 5 7 11 14 14 15 16 16 16 17 18 16 15 16 15 14 15 15 15 17 18 17 19 20 20 22 24 24
3 3 3 4 6 9 12 14 16 18 17 18 17 18 19 20 20 19 18 18 18 18 17 17 15 17 18 19 19 20 21 20 20
6 3 3 5 8 11 14 18 19 16 16 19 21 21 22 21 20 19 18 19 18 14 13 11 11 12 10 10 8 9 10 11 13
6 3 5 8 13 14 16 15 19 21 23 24 24 22 20 17 15 14 12 9 8 7 7 9 10 10 9 10 10 10 11 13 15
4 5 8 10 10 12 15 19 22 24 24 22 19 15 13 11 9 7 7 8 7 8 9 11 12 12 13 14 15 17 17 18 19
4 5 6 7 10 15 18 20 21 21 20 18 14 12 10 8 7 7 9 9 10 10 11 13 15 17 18 18 19 21 23 22 21
4 3 5 9 12 14 15 16 18 19 18 17 14 10 9 8 8 6 10 11 13 12 12 14 17 18 19 22 22 24 22 16 16
2 4 7 11 14 16 16 15 15 18 20 19 17 8 7 12 12 9 16 11 16 12 17 19 18 20 21 22 23 25 26 25 21
2 6 10 14 18 19 18 16 15 17 22 25 23 11 8 14 11 15 19 20 18 15 25 20 22 22 23 23 24 25 25 19 23
4 8 12 15 17 16 15 16 16 18 21 23 19 13 15 6 13 22 16 25 18 29 22 27 26 26 27 26 26 28 25 20 19
5 9 13 16 17 16 15 15 17 17 16 18 15 9 7 35 16 33 27 32 33 32 32 31 29 28 29 31 31 27 23 20 19
6 9 13 16 16 14 14 15 16 18 20 18 16 14 18 15 20 27 42 35 41 40 39 35 30 33 34 32 27 24 25 21 22
6 9 13 15 15 14 14 14 16 18 19 20 23 24 24 22 20 35 41 47 45 44 39 39 38 33 33 28 24 26 29 28 29

GFSFLT1_850_spd_006.txt.gz
Wind_Speed
2 0 3 5 6 7 8 8 8 8 7 6 5 4 5 5 6 7 7 7 7 7 7 8 11 11 10 12 13 14 15 15 16
5 3 3 3 4 5 7 7 7 6 5 5 4 5 5 6 6 7 7 8 8 8 8 9 10 12 12 14 14 14 16 16 18
5 4 5 4 3 4 5 5 5 5 5 5 5 5 6 6 7 7 7 7 7 7 8 10 11 10 14 15 15 15 16 17 18
6 5 4 3 2 4 4 4 5 6 6 6 6 7 7 8 8 8 8 8 9 10 10 11 13 13 11 15 17 18 18 19 18
7 5 2 2 1 1 3 5 6 6 7 8 9 11 12 13 13 12 9 10 10 11 12 12 13 13 13 13 15 16 18 18 18
5 4 4 2 1 1 2 4 5 8 10 11 12 13 13 13 12 11 11 11 11 11 11 13 15 17 17 18 18 18 18 17 17
6 5 4 3 2 3 4 7 9 10 12 12 13 14 15 15 15 14 14 14 14 14 13 14 15 16 18 18 20 20 22 23 23
5 5 4 3 3 3 6 10 12 13 15 15 16 17 18 19 19 19 17 17 17 16 16 15 15 17 20 20 20 19 20 20 21
5 4 1 2 4 7 8 11 14 17 17 16 17 20 22 22 22 21 19 18 17 16 15 10 10 13 15 12 16 17 19 19 19
4 3 2 4 7 10 11 14 15 15 17 20 22 24 23 22 20 17 16 14 12 7 7 8 9 8 6 4 6 10 10 10 11
3 4 3 7 11 13 12 15 18 21 23 24 23 21 19 16 12 10 9 7 7 8 8 9 9 8 10 10 11 12 14 15 16
4 3 6 10 9 11 15 19 22 23 21 19 16 14 13 11 8 7 7 7 9 9 10 12 12 14 14 15 17 19 20 20 19
5 6 7 7 10 13 17 19 19 18 17 14 12 13 12 10 8 7 9 10 11 12 13 14 15 17 18 19 19 21 22 24 25
7 5 5 8 11 14 16 17 17 17 15 14 11 12 9 10 10 10 8 10 12 14 14 15 18 20 21 22 23 24 25 26 24
5 4 6 9 12 14 15 15 16 18 18 17 15 8 8 9 12 17 12 16 15 22 19 19 23 22 23 25 26 27 28 27 19
4 3 6 11 15 18 18 17 16 18 22 23 20 8 4 12 15 10 17 21 18 23 21 28 26 27 28 29 29 29 30 27 16
3 3 8 13 17 18 18 17 17 19 22 23 19 10 10 1 9 24 19 25 21 29 24 28 28 29 29 30 32 33 33 29 24
2 5 9 13 16 18 18 18 18 18 17 19 16 8 7 31 8 28 18 31 29 34 33 33 31 31 32 33 34 34 31 26 21
3 6 9 13 16 17 17 18 18 18 18 16 16 15 16 13 18 16 38 33 41 40 39 37 38 33 32 32 33 31 27 22 23
4 7 10 13 15 16 16 16 17 18 19 20 21 20 20 19 20 35 40 45 44 43 44 40 35 35 31 29 27 27 24 26 27

GFSFLT1_850_spd_009.txt.gz
Wind_Speed
3 3 3 4 6 7 7 7 6 6 5 3 2 2 2 1 2 2 3 4 4 5 6 6 9 11 11 11 12 14 15 16 15
7 4 3 4 3 4 5 5 4 3 3 2 2 3 4 4 4 4 4 5 6 6 7 8 9 9 12 11 13 14 14 15 15
7 6 3 3 3 3 4 5 5 5 5 4 3 3 4 6 6 6 6 7 8 8 8 9 10 11 11 13 16 15 14 15 16
6 5 3 2 2 2 3 4 4 4 5 6 7 8 9 10 11 11 11 12 12 10 10 12 13 15 15 14 15 17 18 18 19
8 6 4 4 2 0 1 3 4 5 7 9 11 12 12 11 12 10 10 12 13 12 11 14 15 16 16 16 16 17 17 17 20
8 7 6 4 2 2 2 4 6 8 10 11 12 12 12 12 12 12 12 13 12 12 14 15 16 16 18 19 20 20 21 20 20
8 7 6 4 3 4 5 6 9 10 11 12 13 14 15 15 15 15 15 14 15 15 15 14 15 17 20 21 20 20 20 22 23
7 6 5 5 4 4 6 8 10 12 15 16 15 16 17 19 20 20 18 16 15 14 13 10 11 14 15 15 18 19 21 22 22
6 6 5 3 3 6 9 10 13 15 15 17 18 20 21 21 21 20 18 15 12 6 6 9 12 11 8 10 14 14 15 17 19
7 6 3 4 5 8 11 12 14 16 18 20 20 21 20 19 16 13 12 9 10 9 10 11 8 7 8 8 10 11 12 13 13
6 6 5 6 8 11 11 13 17 19 19 19 18 16 15 13 10 7 6 7 7 8 10 9 11 12 11 12 14 15 15 15 16
8 6 6 7 8 10 14 17 18 18 16 15 14 12 12 10 7 5 5 6 8 9 11 12 14 15 16 18 19 19 21 21 21
8 7 7 6 8 12 15 17 17 16 13 11 11 10 10 8 6 4 5 7 9 10 12 14 16 17 18 20 22 23 24 26 26
9 8 5 6 9 12 15 15 15 13 11 10 11 11 8 8 9 8 8 9 10 13 15 17 19 21 22 23 25 25 26 27 27
9 7 5 6 8 11 12 13 14 15 16 14 13 5 5 7 10 11 15 16 17 17 20 22 24 25 27 28 28 29 31 31 31
10 6 3 5 9 11 13 13 15 17 19 17 12 7 1 8 9 9 12 18 18 22 24 26 28 28 27 28 29 31 33 33 32
9 5 4 7 10 12 14 15 17 19 20 20 13 7 6 2 13 15 16 19 17 25 25 27 26 26 28 29 30 31 33 33 30
9 5 5 7 10 13 16 17 17 17 19 19 14 7 4 24 1 21 10 26 24 31 31 29 31 28 28 30 31 31 33 32 25
9 6 4 7 11 14 16 18 19 18 17 17 16 13 13 8 13 13 28 29 36 34 31 36 28 32 28 30 30 30 30 26 24
9 5 5 8 11 14 16 18 18 18 18 18 17 16 16 16 17 25 32 38 36 35 42 31 37 31 30 29 29 27 30 26 25

GFSFLT1_850_spd_012.txt.gz
Wind_Speed
3 2 4 5 5 5 5 5 5 4 3 2 2 2 3 3 5 6 7 6 7 7 7 7 8 10 11 12 11 12 15 15 16
7 3 1 3 3 3 4 5 5 4 4 4 4 5 5 5 6 7 8 9 9 8 8 8 9 10 9 13 12 13 14 16 17
5 4 3 3 2 3 4 4 4 4 4 4 5 5 6 7 8 9 9 12 12 11 11 11 12 12 12 12 13 16 17 15 15
5 6 5 4 2 2 3 3 4 5 6 8 9 10 11 9 9 12 9 14 14 13 11 12 14 16 17 17 15 15 16 18 20
7 5 5 4 3 2 1 2 5 7 8 10 11 11 10 9 11 9 10 12 12 12 12 14 16 16 18 17 16 19 19 19 19
9 8 6 5 4 4 4 5 7 9 11 11 13 12 12 12 12 11 13 13 13 13 13 14 15 17 19 19 19 19 20 20 22
10 7 6 6 5 6 6 7 9 9 11 14 14 12 13 13 15 14 16 15 15 15 14 13 14 15 15 19 20 20 21 21 22
8 6 5 4 6 8 7 8 10 13 14 14 15 17 17 17 16 18 18 15 13 8 8 12 12 11 14 17 19 19 18 19 21
8 5 6 7 6 7 8 10 13 15 16 18 19 20 20 18 15 14 13 10 8 8 11 12 10 13 13 13 15 16 16 16 17
8 9 7 6 7 9 10 12 13 16 18 20 20 19 16 13 9 8 8 7 8 10 10 11 11 11 10 13 14 13 14 14 15
8 8 7 7 8 10 10 13 16 18 19 19 18 16 13 10 6 5 7 7 8 10 10 12 12 12 14 16 17 18 18 19 19
9 8 7 8 9 9 12 15 17 17 17 16 15 13 11 8 6 6 6 7 9 10 11 13 14 15 17 19 20 21 23 24 24
10 8 8 8 7 9 13 15 15 15 13 13 13 13 10 7 6 7 6 7 9 11 12 13 16 18 19 21 22 22 24 26 27
10 10 10 7 6 9 11 12 12 12 11 11 12 11 6 7 7 7 8 11 13 16 17 17 20 21 23 24 24 26 26 28 28
12 11 8 5 4 7 9 11 13 13 13 11 9 5 4 7 7 9 12 16 14 17 19 23 25 26 25 25 25 26 27 28 30
11 12 8 4 3 5 8 11 14 15 15 12 6 6 3 7 7 7 14 15 18 18 23 24 26 25 26 26 25 26 27 28 29
14 12 8 4 2 6 9 12 15 16 16 14 7 5 3 2 6 19 15 15 11 20 24 23 23 26 24 25 26 26 27 28 29
16 13 8 4 3 6 10 12 14 14 15 13 7 4 3 14 4 9 15 14 21 25 25 23 28 23 28 25 27 28 29 29 29
17 13 8 5 4 7 10 13 14 14 13 13 13 9 8 5 10 8 12 17 20 22 23 26 26 26 22 27 27 28 29 31 33
18 13 9 6 5 7 11 13 14 15 14 13 13 12 11 8 9 19 14 21 21 21 19 24 20 19 22 23 21 29 36 29 27

GFSFLT1_850_spd_015.txt.gz
Wind_Speed
6 4 5 6 6 6 6 6 6 6 5 5 5 7 7 6 5 6 8 9 9 10 9 8 7 6 9 11 9 9 10 13 13
5 3 3 3 4 5 5 6 6 6 6 7 8 8 8 9 6 7 8 10 12 11 11 11 10 9 10 10 10 11 10 10 14
6 3 1 2 3 4 4 5 6 6 6 7 8 9 9 8 7 8 7 13 14 13 11 9 11 12 14 15 14 13 13 14 14
5 5 3 2 2 3 3 4 3 5 7 8 10 11 11 8 8 8 6 12 12 11 9 10 12 13 14 14 13 16 15 14 15
5 4 4 3 2 2 2 4 6 8 10 10 10 11 10 7 8 7 11 12 12 11 10 11 12 15 16 17 17 16 14 15 18
5 7 4 4 4 3 4 6 8 10 9 11 12 10 6 8 7 7 13 14 14 13 13 13 13 14 15 17 17 16 16 17 18
9 6 5 5 5 5 6 8 8 7 6 10 12 8 12 10 10 13 15 15 14 11 10 13 12 12 13 15 16 16 16 16 17
8 4 3 4 4 5 7 8 9 11 12 13 13 15 15 11 8 16 16 12 4 4 10 10 11 12 13 14 16 16 16 15 15
8 5 6 7 3 5 6 7 11 12 14 16 16 14 13 9 6 15 11 7 9 10 9 11 12 12 12 14 14 14 14 14 13
8 9 7 4 6 6 8 9 10 13 16 15 14 13 11 6 5 13 8 7 9 9 10 11 11 11 12 14 14 14 15 16 16
15 11 7 7 8 8 9 10 13 14 15 13 11 10 9 5 3 5 8 8 9 10 10 12 12 13 14 16 18 19 19 20 20
11 9 8 9 8 7 8 12 13 13 12 10 11 9 7 6 3 4 4 8 9 10 11 13 14 14 16 17 19 21 23 22 23
10 10 10 10 7 6 8 10 10 11 11 11 8 9 10 5 4 5 4 8 8 12 12 14 15 16 18 20 21 22 24 24 25
11 10 10 8 5 5 6 8 9 10 10 10 10 10 5 5 5 4 7 11 13 15 17 17 19 20 21 21 21 22 23 24 25
13 13 11 9 5 3 4 7 9 10 11 10 8 7 4 6 6 6 7 12 15 15 17 17 19 22 23 23 23 22 23 24 25
15 13 12 9 4 1 4 7 9 11 12 9 6 7 7 6 6 8 9 10 13 14 15 18 22 21 23 24 23 24 24 24 25
16 14 13 8 4 1 4 7 10 13 13 11 7 3 4 4 5 11 13 11 13 14 20 22 20 21 23 21 24 23 25 25 26
19 16 13 9 6 2 4 7 9 11 13 11 6 3 3 14 8 9 12 13 18 19 24 22 21 25 22 23 22 25 27 27 28
20 17 15 10 6 3 4 7 9 11 11 11 9 5 8 3 9 5 12 17 19 22 25 26 27 24 22 22 25 27 28 31 31
22 19 16 11 6 4 5 8 10 11 11 10 10 8 7 8 11 20 13 21 20 22 22 21 26 20 21 24 24 18 24 28 29

GFSFLT1_850_spd_018.txt.gz
Wind_Speed
8 7 8 8 9 9 9 9 9 9 8 8 8 9 8 6 10 8 7 9 8 11 10 8 7 7 7 8 7 6 4 6 9
6 5 6 6 6 7 7 8 9 9 8 9 9 9 8 7 7 4 5 6 11 11 9 7 9 9 9 10 10 10 9 6 6
6 4 3 4 4 6 7 8 8 7 7 8 9 9 8 6 3 4 8 9 10 10 8 6 7 7 8 10 10 11 11 10 11
6 4 2 1 3 4 5 5 5 6 8 8 8 9 7 3 5 1 7 9 10 10 8 7 8 10 11 12 13 11 10 11 12
6 5 3 1 1 2 3 4 6 7 8 8 9 8 4 5 3 7 9 9 10 10 10 9 9 10 10 12 11 9 9 9 11
7 5 3 1 0 1 2 4 6 6 7 9 10 4 5 5 8 11 12 11 12 11 11 10 8 7 9 12 12 11 10 10 12
8 5 4 4 2 1 3 4 5 7 9 11 9 10 10 7 10 13 13 13 9 4 7 6 8 9 9 11 12 13 12 11 11
10 6 5 4 3 3 2 5 6 9 8 10 10 12 12 7 10 14 13 5 4 1 4 8 8 9 11 12 13 13 12 11 11
11 3 4 4 2 2 3 5 8 9 11 13 13 12 10 5 10 12 10 7 6 7 8 8 8 10 11 12 12 12 13 12 12
9 12 14 11 8 6 5 6 7 10 12 12 12 10 8 3 9 11 9 6 6 7 7 8 9 10 11 13 13 14 15 15 15
15 19 13 10 8 7 7 6 8 10 10 9 9 9 7 4 6 10 8 6 6 7 9 9 10 12 13 14 15 16 17 17 18
18 15 12 10 8 8 5 6 7 7 9 8 7 9 7 6 3 9 9 8 7 7 9 10 12 13 13 15 17 19 21 21 20
16 13 13 11 10 7 4 4 6 7 9 9 8 9 9 4 6 7 9 10 10 11 11 14 15 16 17 19 20 21 22 22 22
14 13 12 11 9 6 3 2 5 7 9 9 8 9 5 4 5 7 8 10 11 13 16 14 17 17 18 18 19 20 20 21 21
15 13 14 12 9 6 2 2 5 7 9 8 7 8 5 5 7 7 9 11 15 16 17 17 16 20 21 20 22 22 20 22 22
19 15 14 13 10 6 2 2 5 7 9 9 7 4 7 8 7 6 9 13 17 18 18 18 22 23 23 22 24 22 23 23 22
19 17 15 13 10 6 2 3 5 7 10 10 6 2 4 6 6 10 14 16 16 16 20 23 26 24 24 26 24 23 22 25 23
22 18 15 15 11 7 3 2 5 8 9 10 6 2 2 10 9 7 11 13 14 20 23 28 29 27 27 25 24 23 28 27 26
25 21 18 15 12 8 4 2 4 8 9 10 7 6 7 4 8 7 12 16 18 20 27 28 28 28 26 26 25 29 28 28 26
26 23 20 17 13 9 5 4 5 7 9 9 10 9 8 8 9 21 20 23 25 25 25 26 28 26 27 26 30 29 28 30 30

GFSFLT1_850_spd_021.txt.gz
Wind_Speed
10 10 11 11 11 11 11 12 11 11 10 10 10 10 8 9 8 5 3 7 5 9 5 5 6 6 5 5 6 6 5 4 6
9 9 10 10 10 10 11 11 10 10 9 8 7 6 5 6 4 1 4 5 7 7 5 2 3 3 4 6 6 8 6 6 5
8 8 8 8 8 9 9 8 7 7 7 6 6 6 5 4 3 4 6 5 6 5 4 3 4 5 6 7 7 6 6 8 7
9 7 6 7 6 7 6 6 5 5 5 5 5 4 4 2 1 3 4 6 7 6 5 3 4 5 5 5 6 6 7 7 6
9 8 6 6 6 5 4 3 3 3 4 5 4 1 1 3 3 6 6 8 8 8 7 5 3 3 6 7 7 6 7 7 7
8 6 6 5 4 4 2 1 1 2 3 4 3 2 2 7 8 9 9 9 8 5 3 1 1 2 5 7 8 7 7 7 7
9 7 6 5 4 4 2 0 1 3 5 5 6 8 7 9 10 10 10 9 1 1 2 2 2 3 6 7 9 9 8 8 8
9 7 6 6 6 5 4 2 1 4 4 6 8 10 10 9 10 9 9 2 6 5 2 2 3 6 7 7 8 8 7 7 7
10 8 8 7 5 6 4 3 4 5 7 9 9 8 8 9 8 8 7 4 6 4 4 4 4 5 7 8 9 9 9 9 9
15 14 11 9 7 6 5 6 6 7 8 9 8 7 5 7 7 8 6 2 4 3 4 5 6 7 8 9 10 11 12 12 13
17 15 15 12 11 9 8 7 7 8 7 7 6 5 4 5 7 7 6 4 3 4 5 6 7 9 10 11 12 12 14 15 15
20 18 18 15 13 10 9 8 7 6 5 5 5 4 4 6 6 7 7 5 5 5 5 7 9 12 12 14 15 17 18 18 18
17 18 19 16 12 10 9 7 5 4 4 5 5 5 4 4 6 7 9 7 8 8 9 11 12 12 13 14 16 17 18 18 18
21 20 18 15 13 11 9 6 3 2 4 5 4 4 2 2 5 7 7 8 9 11 12 13 14 12 15 17 18 18 18 18 19
23 20 16 14 13 12 9 5 2 2 3 4 4 2 3 1 4 7 9 10 12 16 15 15 13 19 21 20 19 20 21 19 19
25 21 18 16 14 13 10 6 3 1 3 4 2 0 1 1 3 6 8 12 15 16 18 17 20 22 23 23 21 23 20 19 19
28 22 20 16 16 14 11 7 3 1 3 4 2 1 2 3 4 5 10 13 13 14 16 20 23 26 26 24 25 21 21 20 23
29 24 21 18 17 14 11 7 4 1 3 5 4 2 2 6 6 9 10 13 14 16 18 21 26 26 25 25 23 22 22 24 19
30 27 24 21 18 16 12 8 5 2 3 4 5 4 5 3 4 9 12 13 16 18 20 25 22 23 23 22 24 24 25 25 19
32 29 25 24 21 18 14 9 6 4 5 5 6 6 7 8 9 15 14 19 20 21 21 23 21 19 19 22 23 25 28 26 24

GFSFLT1_850_spd_024.txt.gz
Wind_Speed
10 11 11 12 12 12 12 12 12 11 10 10 10 7 7 5 4 3 3 5 4 7 2 3 4 3 2 2 3 3 3 2 3
10 10 10 11 11 11 12 12 11 10 8 7 6 6 6 4 4 2 2 6 6 7 3 0 1 1 0 1 2 5 5 4 3
11 10 10 9 9 10 10 9 8 7 6 5 4 4 6 5 3 4 6 6 6 5 2 3 4 6 6 7 6 7 3 5 7
9 9 8 8 8 8 7 6 5 4 4 3 3 3 3 2 3 3 5 6 6 7 6 3 2 3 4 4 2 3 3 5 3
10 9 8 7 7 6 5 4 3 3 2 1 2 2 2 3 4 4 6 7 8 8 6 1 2 4 3 4 3 4 4 5 6
11 9 8 7 7 6 5 3 2 2 1 2 2 3 5 7 8 7 7 8 5 1 2 4 4 4 4 5 4 4 4 4 5
11 9 9 8 8 7 6 4 3 3 3 4 5 6 8 9 9 8 7 1 2 5 6 4 3 2 4 5 5 5 5 4 5
14 13 11 10 9 8 6 6 4 4 5 5 8 9 9 9 8 6 2 6 5 4 6 2 2 3 4 5 5 5 5 5 4
14 13 11 11 10 10 8 6 5 6 7 8 9 9 9 7 6 4 2 8 8 2 1 1 2 4 4 6 7 7 7 8 7
15 14 13 13 11 9 8 7 7 8 10 10 9 7 6 6 5 4 2 3 5 4 3 4 4 5 6 7 8 9 9 9 10
16 18 17 15 12 9 9 9 9 9 10 9 7 6 5 5 5 3 2 2 4 4 4 4 5 6 8 9 10 12 13 14 14
18 21 20 16 12 12 11 11 10 9 8 7 6 5 5 6 6 4 2 2 2 3 4 6 8 9 8 10 12 14 14 14 15
21 22 20 17 15 15 13 12 10 8 7 6 5 5 6 6 5 4 4 3 3 5 6 7 9 10 10 12 14 16 16 16 16
19 20 20 19 18 17 14 12 10 8 6 4 4 4 3 4 4 5 5 5 6 6 10 9 10 9 12 15 15 16 17 18 18
20 21 22 20 19 17 15 13 11 8 5 4 4 3 3 3 4 6 7 7 8 12 11 12 10 14 15 17 17 16 17 18 17
24 24 24 22 18 16 16 14 12 8 6 4 4 5 4 5 6 7 8 9 11 11 13 13 16 17 20 20 18 18 15 16 14
30 26 26 24 20 18 17 15 13 9 6 6 6 6 6 7 8 8 11 12 13 13 14 17 20 22 23 21 21 18 16 16 16
32 29 27 26 22 17 18 16 14 11 8 6 5 4 5 6 10 12 12 13 14 14 16 19 21 24 23 24 21 19 19 18 16
33 32 32 28 24 20 19 18 15 12 9 6 5 4 5 3 4 10 13 15 15 17 19 23 22 23 22 20 20 21 20 18 16
35 36 34 31 26 24 22 21 17 13 9 7 6 6 6 7 8 10 10 15 18 22 21 21 21 21 19 20 22 21 21 20 19

GFSFLT1_850_spd_027.txt.gz
Wind_Speed
10 11 11 12 12 12 12 11 10 9 8 8 6 4 4 3 5 4 5 8 5 8 3 4 4 3 3 4 4 4 4 3 3
11 11 11 11 12 12 12 11 10 8 7 5 3 3 2 1 2 1 1 5 4 6 3 2 3 2 2 3 3 5 7 5 4
11 11 11 11 11 11 10 9 7 6 4 3 2 2 2 1 2 2 3 4 5 5 3 3 4 4 3 4 5 4 5 4 7
11 10 9 9 10 9 7 6 5 3 3 1 0 1 2 2 3 4 4 5 7 7 6 4 3 5 7 6 5 5 5 5 2
11 10 9 8 8 7 6 4 3 2 2 1 1 2 3 3 4 4 6 7 8 8 5 1 5 6 4 2 3 4 5 5 6
12 10 9 8 7 7 5 4 3 2 2 2 3 5 6 7 8 7 7 6 4 2 4 5 6 5 4 2 4 4 6 6 6
13 11 10 9 8 8 6 6 5 4 4 4 5 7 9 9 8 7 5 0 3 3 4 3 5 2 2 3 4 4 4 4 5
16 14 13 11 11 10 8 7 5 5 5 5 7 9 9 8 7 2 3 3 3 3 4 5 4 2 3 4 4 4 4 4 5
17 15 14 12 12 11 10 8 6 6 6 7 9 9 8 6 4 2 5 9 9 6 1 1 2 3 4 6 6 6 6 6 6
17 16 15 14 13 12 11 9 8 8 9 9 9 8 6 5 4 3 3 5 7 5 3 4 4 5 6 8 8 8 8 9 9
19 17 17 15 14 12 11 9 9 9 10 9 8 7 5 4 3 2 2 2 4 5 4 5 5 7 8 10 11 11 12 12 12
20 18 19 16 15 13 11 10 11 11 11 9 8 7 6 5 3 2 1 2 3 3 4 6 6 7 8 9 11 13 14 14 15
20 19 20 19 17 14 12 12 12 12 10 9 8 7 7 6 4 3 2 2 3 3 4 6 8 9 8 9 12 15 17 16 16
21 18 19 20 18 15 14 14 14 12 11 10 8 7 7 6 5 4 3 4 4 4 8 7 8 9 10 12 14 15 16 17 18
20 18 20 20 18 16 16 17 15 13 12 10 8 7 6 6 6 5 5 6 6 8 10 10 10 11 13 15 17 16 15 16 15
26 22 21 20 19 18 18 17 16 14 13 10 9 7 7 8 8 8 8 9 10 11 12 13 14 17 19 20 19 19 18 15 14
30 27 25 22 22 22 20 18 18 17 14 11 9 7 10 12 12 11 12 12 13 14 14 16 18 21 23 23 22 22 20 16 15
33 31 29 24 23 24 21 19 19 18 16 14 10 6 7 11 13 14 14 14 15 16 16 18 22 25 25 24 22 21 20 19 15
36 34 32 31 26 26 24 21 20 20 18 15 14 12 9 7 6 13 15 15 16 17 18 22 26 25 24 23 22 20 20 18 15
39 37 35 32 32 30 28 25 24 23 21 18 15 13 11 11 11 7 11 15 18 19 21 25 24 24 23 22 24 23 22 22 22

GFSFLT1_850_spd_030.txt.gz
Wind_Speed
10 10 11 12 13 12 10 9 9 7 7 7 5 4 4 5 6 5 7 7 7 7 4 6 5 5 3 6 5 7 5 3 2
11 11 12 12 13 13 12 11 10 8 6 5 3 2 2 3 3 3 4 5 3 4 2 2 3 3 1 2 2 4 7 6 6
11 11 11 11 12 12 11 9 7 5 3 2 1 1 1 2 2 2 3 4 5 5 4 5 2 2 2 5 4 4 3 2 5
11 11 10 11 11 10 9 6 5 4 3 2 2 2 1 2 3 3 4 4 6 7 5 4 3 5 6 6 6 6 6 5 4
9 10 9 9 9 7 6 4 3 3 2 2 2 1 1 2 3 4 5 6 7 6 4 4 1 5 6 2 2 4 6 7 6
10 8 8 8 7 7 5 4 2 1 0 2 3 3 4 5 5 5 5 4 2 4 5 5 5 4 5 4 3 5 5 6 7
11 10 9 8 8 7 6 4 3 2 3 4 4 6 7 7 6 4 2 3 3 3 3 4 4 6 3 3 3 4 4 4 5
15 13 11 10 9 8 6 5 5 4 4 5 6 8 8 6 4 1 7 4 5 5 4 6 5 2 3 3 4 4 4 5 5
16 14 12 12 10 10 9 8 7 6 6 7 8 8 7 4 2 4 6 10 9 6 2 1 1 3 4 5 6 6 7 7 7
17 16 15 14 12 11 10 9 8 7 7 8 8 8 6 4 2 3 6 8 8 5 2 2 2 4 5 7 8 7 7 8 9
19 18 17 15 13 13 12 10 10 9 9 9 8 7 5 4 3 3 4 4 4 4 3 2 3 4 6 8 9 9 9 10 11
21 20 19 17 16 15 13 11 11 11 10 10 9 7 6 5 4 4 4 4 4 3 3 3 4 5 6 8 10 11 12 13 13
23 22 21 19 18 17 15 12 12 12 12 11 9 8 7 6 5 5 4 4 4 5 4 4 6 7 7 8 10 13 16 17 16
25 23 20 20 20 18 17 14 13 13 13 12 10 9 8 8 7 7 6 6 6 7 6 7 6 8 9 10 12 14 16 18 19
26 23 22 21 22 21 19 16 15 15 14 13 11 10 9 9 9 9 8 8 8 8 9 8 9 9 11 13 15 16 15 16 17
28 25 23 21 21 19 19 18 18 17 16 14 12 11 11 11 12 11 10 10 11 11 12 11 12 13 15 17 18 18 18 18 17
30 25 26 24 23 22 22 21 20 19 18 16 13 9 12 14 15 14 13 13 14 14 14 15 16 17 19 22 21 20 19 19 18
33 31 30 27 25 22 21 22 22 21 20 20 14 8 8 12 16 17 15 15 15 16 17 18 19 21 24 24 23 22 20 18 18
35 36 33 29 30 29 23 22 23 22 23 22 22 19 11 8 8 15 16 16 18 18 19 20 22 24 25 24 23 23 21 22 20
37 38 37 35 36 33 30 28 28 26 26 25 23 22 19 16 14 9 13 17 18 19 20 23 24 25 24 23 22 24 24 22 22

GFSFLT1_850_spd_036.txt.gz
Wind_Speed
8 9 11 12 12 11 7 4 4 6 8 8 7 7 6 7 5 6 5 5 4 3 3 4 4 5 6 4 5 6 1 3 1
10 10 11 12 11 9 7 7 7 7 6 4 5 4 4 5 4 4 4 3 2 3 2 2 2 4 2 7 8 9 6 12 4
11 11 12 12 11 10 8 7 6 5 4 3 3 3 4 4 3 1 2 1 2 2 0 4 5 5 6 7 6 5 4 4 8
10 10 11 12 11 10 7 5 4 4 4 3 3 3 3 3 1 1 2 3 4 2 2 3 3 1 4 6 8 7 5 4 5
9 10 10 10 10 9 7 4 4 3 3 3 3 2 1 0 2 2 2 4 3 6 4 3 1 6 6 7 9 6 6 6 5
12 11 10 10 10 9 7 5 4 3 2 1 1 1 1 3 3 1 3 7 7 8 6 4 5 9 11 8 4 3 3 3 3
11 13 12 12 11 11 8 6 5 4 2 1 1 2 3 2 1 2 4 6 8 7 8 8 7 8 3 2 3 3 3 3 3
13 11 14 14 13 11 10 8 7 5 4 3 3 4 3 1 2 6 7 6 7 4 4 7 5 3 1 2 3 4 4 5 5
15 14 13 12 12 12 12 11 9 8 6 5 5 6 5 3 6 8 13 13 9 6 7 4 3 2 1 2 3 3 4 5 6
16 16 16 14 13 13 14 13 12 10 9 8 7 7 6 5 6 6 13 14 13 10 5 4 3 2 2 2 3 3 4 5 6
18 17 20 18 15 16 15 15 14 13 11 10 9 9 8 7 8 7 10 13 11 9 6 5 5 4 3 3 3 3 4 5 7
19 18 21 20 18 18 19 18 17 16 14 12 11 10 9 9 10 9 7 10 10 10 8 7 6 5 5 5 5 5 6 7 8
24 20 22 20 19 22 21 20 19 18 16 14 13 13 12 11 11 12 12 10 10 11 9 9 7 7 6 6 6 8 9 10 11
27 25 22 21 22 25 24 22 20 20 18 16 15 15 14 14 14 14 14 14 14 12 11 10 9 8 8 8 8 10 11 13 13
27 28 27 23 25 28 27 25 23 22 20 18 18 17 17 17 16 16 17 17 16 15 13 12 12 11 10 10 11 11 13 14 13
30 31 30 30 31 31 29 27 27 26 23 20 19 19 20 20 19 19 19 20 18 17 16 16 15 14 13 13 13 14 14 13 14
34 34 34 32 33 34 33 33 30 30 27 23 13 9 16 23 23 23 23 22 22 20 19 19 18 17 16 16 16 17 15 13 14
40 38 37 35 35 37 37 36 34 32 29 30 20 9 11 12 22 27 26 26 25 24 23 22 22 20 20 18 19 19 18 17 17
44 42 41 39 37 39 39 38 33 32 34 34 34 31 15 9 8 21 27 28 28 27 26 25 25 22 21 20 21 23 21 21 20
41 45 44 42 40 39 40 40 37 36 38 38 36 36 34 27 17 11 20 28 30 30 29 28 26 24 23 23 25 24 24 23 23

GFSFLT1_850_spd_039.txt.gz
Wind_Speed
6 8 12 10 10 7 3 1 5 7 8 8 8 9 10 13 6 7 6 3 5 3 4 6 6 7 11 9 10 10 9 1 3
7 8 9 8 8 6 4 5 6 6 6 5 5 6 8 9 6 4 5 2 4 3 4 2 2 2 5 6 5 5 8 10 4
8 9 10 10 9 8 7 7 6 4 4 4 4 5 8 7 3 4 2 3 3 2 2 4 4 4 5 6 6 5 3 3 3
8 10 10 10 9 8 7 5 4 4 4 4 4 5 5 5 2 4 2 5 4 2 2 3 4 5 5 6 7 7 4 4 5
8 7 8 9 9 7 5 3 3 3 3 3 3 3 3 1 2 2 3 2 4 7 3 2 3 7 8 7 7 5 2 2 4
9 10 8 8 8 7 6 3 3 2 2 1 1 1 2 1 0 1 3 7 9 8 5 5 7 9 10 5 4 3 3 1 1
7 10 12 11 10 10 7 5 4 3 2 1 1 1 1 0 1 6 6 6 8 7 8 9 8 7 4 3 3 4 5 4 4
15 14 14 13 13 10 10 8 7 5 5 4 2 4 2 1 2 6 5 7 7 5 6 8 7 4 2 2 3 4 4 5 4
12 11 10 11 11 9 10 8 9 9 7 6 4 4 2 4 5 8 12 11 8 7 9 6 4 3 2 1 2 3 3 4 4
16 15 17 15 12 12 12 11 11 10 10 9 7 6 4 5 6 10 16 14 13 12 10 7 5 3 2 2 1 2 3 4 4
15 17 21 19 15 14 13 13 13 11 12 11 10 8 8 7 9 10 11 16 15 14 10 8 6 4 3 2 3 1 1 3 4
18 17 23 23 20 15 15 14 14 14 14 13 12 11 9 10 10 11 12 12 14 13 10 9 7 7 5 4 4 3 4 4 5
22 21 25 23 23 17 17 17 19 18 17 16 15 14 13 11 11 13 13 12 11 14 13 12 10 9 8 6 6 5 5 6 7
25 25 24 23 22 21 22 21 20 20 19 18 17 15 15 14 14 15 15 15 14 12 13 14 13 12 10 9 8 8 8 9 10
27 26 24 23 24 26 26 24 24 23 22 19 19 19 17 16 17 16 18 18 18 17 17 15 16 15 13 12 10 10 11 11 12
28 29 27 28 29 31 28 26 27 27 24 21 20 20 20 21 20 19 21 20 20 21 22 17 19 17 16 15 14 13 13 13 13
31 34 33 32 32 32 32 31 32 32 31 29 19 12 18 24 25 23 23 23 23 23 23 22 21 21 18 19 17 17 15 15 15
34 35 36 36 36 36 36 35 36 37 35 33 24 10 12 13 19 27 27 26 27 25 25 25 24 24 23 22 20 20 17 17 17
36 37 38 39 41 41 40 39 40 39 40 34 36 29 14 11 10 18 28 28 28 28 27 27 27 27 25 25 25 23 20 20 19
37 36 38 42 43 43 42 41 43 42 43 41 39 40 36 29 20 15 19 25 29 30 28 30 29 28 27 27 26 25 24 22 21

GFSFLT1_850_spd_042.txt.gz
Wind_Speed
9 12 10 9 7 4 3 5 8 9 10 11 12 14 15 14 9 8 4 2 7 7 8 9 8 13 12 11 11 12 10 5 6
8 9 10 8 6 4 4 6 8 8 8 8 10 11 13 12 7 2 3 5 5 5 3 2 5 4 6 3 1 8 11 10 12
7 9 9 8 8 6 6 6 6 6 6 7 8 10 12 8 3 2 4 4 3 2 1 3 4 4 3 5 6 5 2 1 3
6 6 8 9 8 7 7 6 5 5 5 6 7 8 9 5 4 1 3 5 3 2 2 2 4 4 4 4 6 7 6 6 6
9 8 8 8 8 8 7 5 5 4 4 5 5 6 3 3 2 2 3 2 7 4 1 4 5 6 6 5 4 2 2 4 4
10 11 10 9 9 7 6 4 4 4 3 3 3 2 2 2 2 2 1 6 8 6 4 7 9 8 6 4 3 3 3 2 1
10 9 10 10 10 8 6 5 4 4 3 2 2 1 1 1 4 3 4 8 7 5 8 9 8 6 4 3 3 4 4 4 3
11 10 10 11 11 9 8 7 7 6 4 3 4 3 3 1 6 6 7 9 6 7 6 8 6 4 1 1 2 3 3 4 4
15 14 11 15 13 13 10 10 9 9 8 7 7 5 4 6 8 10 10 9 7 7 7 8 4 3 1 1 1 2 2 3 3
20 12 14 13 10 8 11 11 10 11 11 11 10 8 6 9 13 14 12 15 12 11 10 8 5 4 3 2 1 1 1 1 1
20 19 21 20 16 13 16 17 15 15 14 14 13 11 10 10 15 16 13 14 15 13 12 10 7 6 5 4 4 2 1 1 2
23 21 21 23 21 19 19 19 17 18 18 17 16 15 13 14 17 18 17 13 15 15 13 11 10 8 7 6 5 4 3 2 2
27 25 24 25 24 23 21 22 23 23 22 20 19 18 17 16 16 20 20 16 15 15 15 14 12 11 10 8 7 6 4 3 3
25 27 27 28 28 24 26 25 28 27 25 23 21 21 20 19 19 19 21 22 19 16 15 17 15 15 13 11 10 8 7 6 6
26 27 28 30 29 27 26 29 31 29 25 24 23 24 22 21 21 22 22 23 23 21 18 17 17 17 16 14 13 11 10 9 9
31 30 30 32 32 31 27 31 33 31 26 24 25 26 24 25 25 25 24 25 25 25 25 20 20 20 19 18 16 14 13 11 11
35 34 35 34 35 34 33 36 35 32 31 32 27 23 28 29 30 29 27 28 27 26 28 25 23 23 21 21 19 18 16 15 14
36 36 38 38 37 38 39 39 39 37 35 38 29 13 17 18 27 32 32 31 31 29 28 28 26 26 25 24 21 21 19 18 17
31 40 39 37 37 39 40 42 42 41 39 38 41 35 23 16 12 21 29 33 34 33 31 30 29 29 29 28 26 25 23 21 20
32 30 31 37 37 37 38 41 44 45 44 45 43 41 39 29 28 23 25 30 34 34 35 32 31 33 31 31 29 28 27 25 23

GFSFLT1_850_spd_045.txt.gz
Wind_Speed
13 12 11 10 7 4 6 9 11 12 13 14 15 14 14 12 7 5 5 6 8 9 8 8 12 12 10 10 13 15 7 7 8
11 11 9 8 6 5 7 9 9 10 11 12 13 12 13 8 3 2 4 4 5 5 4 2 3 4 3 1 2 7 9 11 12
9 10 9 7 7 7 8 8 8 8 9 10 11 11 8 5 2 1 3 3 1 0 1 2 2 3 3 5 6 5 4 3 2
9 9 9 9 8 8 8 7 7 7 7 8 9 7 5 2 1 2 3 4 1 2 4 3 4 4 2 4 5 6 7 6 6
11 11 10 9 9 8 7 6 6 6 6 7 6 5 3 3 2 2 4 2 6 3 1 3 6 5 5 3 2 2 5 5 5
8 10 12 11 10 9 8 6 6 6 5 5 5 4 3 2 1 2 0 6 8 4 3 6 7 4 3 2 2 2 2 3 3
9 9 10 10 10 10 9 8 8 7 6 6 6 5 4 5 3 2 4 8 8 5 8 8 7 4 2 3 3 3 3 3 3
11 11 11 11 11 11 10 9 9 9 8 8 7 5 5 8 5 5 6 10 7 7 6 7 7 2 1 2 2 3 3 3 4
12 10 12 13 12 12 12 12 12 12 11 10 9 8 8 11 9 8 8 9 10 8 7 7 5 3 2 2 2 3 3 3 3
14 13 13 13 12 15 14 13 13 14 13 12 12 11 10 13 13 12 12 11 12 12 11 9 6 5 4 4 4 3 3 3 2
17 19 18 16 15 15 14 13 14 15 14 16 15 14 13 16 16 16 15 13 13 15 14 12 8 8 7 7 6 5 4 3 3
20 22 21 20 20 17 16 16 18 20 20 19 18 17 16 17 19 19 19 16 15 15 16 14 11 11 10 9 8 7 6 4 3
23 25 26 23 23 23 22 22 23 24 23 22 20 19 19 19 21 22 23 20 18 17 17 17 15 14 13 11 10 9 8 7 6
21 26 27 27 25 26 27 25 27 27 28 26 25 24 23 22 23 24 25 24 22 20 18 19 19 16 16 15 13 12 11 9 8
25 25 27 30 30 30 29 29 29 30 31 30 29 27 27 25 27 27 26 26 27 23 21 20 21 20 19 18 16 15 13 12 11
29 29 30 30 33 33 32 31 29 33 33 32 30 30 30 31 30 30 31 30 29 28 26 23 23 22 23 22 21 19 17 15 14
32 32 36 35 35 36 35 35 35 34 35 36 32 27 34 38 36 34 34 34 33 32 31 29 26 25 25 25 24 22 21 19 17
29 36 36 39 37 40 39 38 38 38 39 40 31 14 22 24 30 38 39 38 36 36 34 32 31 28 27 27 27 26 24 22 20
28 25 28 39 40 40 39 42 42 41 43 43 42 41 32 19 14 23 30 37 39 39 37 36 35 32 30 30 29 26 25 24 23
29 28 27 26 30 38 40 39 40 44 47 47 46 45 46 41 35 30 30 28 36 39 38 38 36 35 33 32 30 29 27 25 26

GFSFLT1_850_spd_048.txt.gz
Wind_Speed
15 15 10 6 5 7 10 11 13 14 14 14 12 10 7 7 7 5 6 8 8 8 7 11 10 8 9 13 14 9 9 11 7
12 11 9 6 5 6 9 9 10 11 11 11 10 8 8 6 4 3 3 4 6 5 5 4 3 3 3 4 6 9 10 11 14
10 9 8 7 7 7 8 8 9 9 9 8 8 6 4 3 1 2 3 1 2 4 4 4 4 5 6 7 6 6 5 4 3
11 10 8 8 8 8 8 8 8 8 8 7 7 4 2 0 0 1 1 2 1 3 4 2 1 2 4 7 8 10 9 8 6
11 13 11 10 9 8 7 7 7 7 7 7 6 5 3 2 2 2 2 1 5 2 0 3 5 5 5 5 5 5 7 8 7
9 9 10 10 10 9 8 7 7 7 7 7 6 6 5 4 3 3 2 6 8 3 3 5 6 5 3 1 2 2 3 5 5
8 8 8 9 9 9 8 8 8 8 7 7 7 7 8 6 5 4 4 9 8 5 7 8 7 5 2 1 2 3 3 3 3
11 10 10 9 10 11 11 10 9 9 9 9 9 9 10 9 7 6 6 9 11 10 10 8 8 5 3 2 2 3 3 4 4
11 10 10 11 11 13 13 12 12 12 11 11 11 10 12 13 10 9 9 10 12 12 10 10 9 6 5 5 4 4 4 4 4
13 13 12 10 12 14 15 15 15 15 14 15 15 13 14 15 15 14 13 12 13 14 13 13 11 8 7 7 6 6 5 5 5
13 14 14 13 14 14 14 15 16 15 15 17 17 16 17 17 18 18 16 15 15 15 16 16 14 11 10 9 8 8 7 7 6
15 16 18 17 17 16 17 17 18 19 19 19 19 20 20 19 20 21 20 19 18 18 19 18 16 14 12 12 11 10 9 8 8
17 18 21 19 21 21 21 20 22 21 23 23 22 22 22 22 23 24 24 23 22 21 20 20 19 17 15 14 14 12 12 11 10
18 19 21 22 25 26 25 25 26 27 27 27 27 26 25 25 25 26 27 27 26 24 23 22 22 21 18 18 16 15 15 14 12
24 24 23 23 27 30 30 29 29 31 30 30 29 30 30 29 30 30 29 30 30 29 26 25 24 23 21 21 19 18 17 16 14
29 29 29 29 29 30 32 33 33 33 32 33 33 32 33 35 36 34 34 34 33 33 31 28 27 26 24 24 24 22 20 18 17
30 32 33 34 34 35 35 34 36 37 35 36 38 35 36 40 38 39 38 37 37 36 35 33 31 28 27 27 27 25 24 21 20
29 28 29 32 35 37 39 41 38 39 38 39 35 16 25 29 30 29 33 37 39 40 38 37 35 32 30 29 29 29 27 26 23
31 27 24 25 26 31 38 40 40 40 44 40 40 44 41 23 21 23 24 29 37 39 40 39 37 37 35 32 31 30 29 28 25
27 27 25 25 24 27 28 30 36 39 40 44 38 44 46 47 44 39 31 34 27 30 37 38 39 40 38 35 32 32 32 28 27

GFSFLT1_850_spd_051.txt.gz
Wind_Speed
14 11 7 5 7 8 9 10 10 10 9 7 5 6 7 8 8 8 7 7 7 5 9 6 4 4 10 11 8 8 10 9 5
11 7 6 5 7 8 8 8 8 8 7 5 3 3 4 5 6 5 4 4 4 3 4 4 3 2 2 5 6 6 7 12 10
10 8 6 5 6 7 7 7 7 6 6 4 3 2 1 3 4 3 2 1 4 6 5 5 6 7 8 7 7 7 6 0 4
12 10 8 6 6 7 6 6 5 5 5 5 3 2 1 3 4 4 6 5 3 0 2 0 3 5 6 7 9 11 12 10 7
11 11 9 9 9 8 7 7 6 6 5 5 5 3 3 5 4 5 6 3 2 2 4 4 6 7 6 6 6 8 8 8 8
5 6 7 8 8 8 7 7 7 7 7 7 8 7 6 5 6 6 6 2 6 4 7 7 8 8 7 6 4 3 3 5 6
9 8 7 7 7 7 6 6 6 7 7 8 9 9 8 7 7 7 6 5 8 9 10 12 9 9 7 5 3 3 2 3 3
10 10 10 9 9 9 8 8 8 9 9 9 10 11 11 9 9 9 6 7 12 14 14 13 11 10 7 6 4 4 3 2 3
10 10 10 9 9 10 11 12 12 12 12 12 12 13 14 13 12 11 10 11 13 14 15 13 12 10 9 7 7 6 5 4 4
11 12 12 10 10 11 13 14 16 16 15 16 15 15 17 17 15 14 14 14 14 16 16 16 15 12 11 9 9 7 6 6 6
12 12 13 13 12 10 11 13 15 17 17 16 16 16 18 19 19 18 17 17 17 17 18 17 17 16 12 12 10 10 9 9 8
13 13 13 13 14 13 14 14 16 18 18 20 18 17 19 20 21 22 22 20 19 19 19 19 19 19 17 14 13 12 11 11 10
14 15 15 14 16 17 18 18 19 20 21 21 21 21 21 22 22 23 24 24 23 22 21 21 21 20 20 17 15 15 14 13 12
16 17 17 16 18 20 22 23 24 24 25 26 25 25 24 23 25 26 26 26 27 26 24 23 23 22 22 20 16 17 17 16 15
23 23 23 22 22 23 25 27 27 28 29 30 31 29 28 28 29 29 28 29 30 29 29 26 26 25 24 22 19 18 18 18 18
27 29 28 30 30 29 29 29 31 32 32 34 36 36 32 32 36 34 33 33 32 32 32 31 28 27 26 25 24 22 20 20 20
31 31 31 29 30 31 32 34 35 35 36 37 38 36 35 35 35 36 36 35 35 34 35 33 32 30 29 27 26 27 24 22 20
33 32 31 30 31 32 31 34 34 38 39 41 35 19 22 22 22 23 25 26 28 30 34 35 35 34 33 31 30 29 28 25 21
29 29 30 30 30 28 26 24 25 29 37 38 38 39 40 31 26 27 27 23 27 27 30 31 34 36 36 35 34 31 30 29 25
32 33 32 30 29 28 27 24 26 27 26 30 32 34 37 38 38 34 34 36 34 32 29 28 31 34 37 38 38 34 30 26 29

GFSFLT1_850_spd_054.txt.gz
Wind_Speed
9 6 6 8 9 9 10 10 11 10 9 8 7 8 9 9 10 9 7 8 7 7 6 3 5 6 10 9 9 11 12 10 5
8 7 6 7 8 8 8 8 8 7 6 6 7 7 7 8 9 8 5 3 2 2 2 3 5 3 1 3 3 3 7 9 8
9 7 7 7 7 7 7 7 6 5 4 3 4 5 5 6 7 7 6 5 5 6 5 4 5 6 6 7 8 7 4 2 4
11 9 8 7 7 7 7 6 5 4 3 1 1 2 4 6 7 7 8 7 4 4 5 4 5 7 7 6 8 9 11 10 7
5 6 6 6 6 6 5 5 5 5 4 4 3 2 2 4 5 6 8 6 2 5 9 10 9 8 7 7 6 6 8 7 8
6 5 5 5 5 4 3 2 2 3 3 5 5 5 5 6 7 7 8 4 3 8 11 13 13 12 10 8 6 5 5 3 3
6 7 7 7 6 6 5 4 4 4 4 6 7 7 7 8 8 8 8 3 5 10 13 17 14 13 12 9 7 5 5 4 4
7 7 7 6 6 5 6 6 6 7 7 8 9 10 10 9 9 10 8 4 9 14 15 15 14 14 13 10 8 6 5 4 3
7 8 8 8 8 8 8 9 10 9 10 11 12 13 13 13 12 11 11 8 11 14 15 14 14 14 14 11 9 7 6 5 4
8 8 9 8 9 8 9 10 11 12 14 15 15 15 15 16 16 15 13 12 13 15 16 16 15 14 13 13 11 9 8 7 6
10 9 10 10 11 9 9 10 11 12 15 15 15 15 16 17 17 17 17 16 15 16 17 17 17 17 15 14 13 12 10 10 9
11 10 11 10 11 12 12 12 13 14 15 16 16 16 17 17 18 18 18 19 18 18 18 18 18 17 17 17 15 13 13 12 11
12 12 11 10 12 13 15 16 17 17 18 19 19 19 18 19 19 20 19 20 20 20 20 19 20 19 18 16 17 15 15 15 14
17 17 15 13 14 15 17 19 20 21 22 23 23 23 23 22 22 23 22 22 23 23 22 22 21 21 20 19 16 15 17 17 16
20 22 21 21 21 22 22 23 23 24 26 27 28 28 28 26 26 27 26 26 25 25 25 25 25 24 23 21 19 17 18 19 18
24 24 24 25 27 26 26 27 29 29 30 32 33 33 32 31 30 29 30 31 30 30 29 28 27 26 25 24 22 21 19 20 21
26 27 27 29 29 29 28 28 30 31 31 33 36 35 30 31 28 27 24 21 23 25 26 28 28 28 27 27 26 24 22 22 22
30 31 31 31 31 31 30 30 30 31 29 30 31 21 20 25 24 22 22 25 25 26 26 26 26 27 28 29 29 29 27 24 24
27 27 27 28 29 29 29 28 29 27 27 26 26 29 31 30 26 23 20 22 30 27 27 25 22 22 26 29 30 31 30 28 27
33 32 31 30 31 31 29 29 28 27 25 25 24 23 24 26 29 27 24 26 26 25 26 28 25 25 30 28 30 32 35 32 33

GFSFLT1_850_spd_057.txt.gz
Wind_Speed
8 10 10 11 12 13 13 13 13 12 11 10 10 11 11 10 11 9 10 11 6 4 3 3 6 7 8 9 7 12 13 9 5
8 10 9 10 10 11 11 11 11 11 10 9 10 9 9 10 10 9 7 6 2 3 3 3 4 3 2 2 1 3 8 8 7
9 9 8 9 9 8 9 8 8 8 7 7 7 7 8 8 8 8 8 6 5 7 7 4 5 5 3 5 8 8 4 1 3
9 9 8 7 7 6 5 5 5 4 4 4 4 5 6 7 7 8 9 6 5 8 10 8 9 9 7 5 5 6 7 9 7
4 4 5 5 5 5 3 2 2 2 3 4 4 5 6 7 7 8 9 6 2 6 9 12 12 11 10 8 6 5 6 5 7
5 6 5 4 4 5 4 3 1 1 2 2 3 3 4 5 6 7 8 6 1 7 10 14 13 12 11 9 7 6 6 4 2
4 5 5 5 5 5 4 3 2 3 4 4 4 5 6 6 7 7 7 5 2 9 13 15 13 12 12 9 7 5 5 5 4
5 5 5 6 6 5 5 4 5 5 6 7 7 8 8 8 9 9 9 6 4 13 15 13 13 12 12 11 8 6 5 4 4
4 6 7 7 7 6 6 7 8 8 9 9 9 11 11 11 11 11 11 9 8 13 15 13 12 12 12 12 10 7 7 5 4
5 6 7 8 8 7 7 8 9 9 10 11 12 13 13 14 14 13 12 11 11 12 15 16 15 13 12 12 11 10 8 7 7
8 7 7 8 8 8 8 9 9 9 10 10 11 11 13 13 14 15 15 14 13 13 15 16 17 16 14 13 11 11 10 9 9
9 10 9 7 8 10 11 11 12 11 12 11 11 13 13 14 15 16 16 16 15 15 15 16 18 17 16 15 15 13 12 11 11
10 10 9 9 10 11 12 12 14 15 15 15 14 15 16 17 17 18 19 18 17 17 17 16 17 18 17 15 14 14 16 13 13
14 14 13 12 13 14 15 15 16 17 18 18 19 19 20 20 21 22 22 21 19 19 18 18 18 19 19 18 15 15 17 17 15
17 19 19 18 19 20 20 21 21 22 23 24 25 25 25 24 25 24 26 26 26 23 23 22 22 21 20 20 19 16 17 20 21
20 22 23 22 23 23 24 24 24 25 24 27 29 29 28 29 28 26 25 22 22 22 23 24 24 23 22 22 22 20 18 19 23
25 26 25 25 26 26 26 26 27 27 25 27 28 28 25 25 21 17 16 15 15 16 18 19 23 24 23 23 22 22 22 19 21
29 29 30 29 30 30 29 29 29 29 28 25 25 16 14 19 18 21 19 21 21 21 18 21 14 16 18 20 22 23 24 24 21
27 27 26 26 26 27 27 26 26 26 27 25 26 25 24 18 16 17 19 21 21 19 21 20 18 19 19 18 19 21 25 27 27
26 27 28 29 30 29 29 28 27 27 27 27 25 23 23 23 21 21 16 14 15 17 18 19 19 20 20 20 21 21 24 26 29

GFSFLT1_850_spd_060.txt.gz
Wind_Speed
9 11 12 13 13 14 14 14 14 13 12 11 12 11 11 12 10 9 10 5 2 3 3 4 3 3 4 3 6 10 10 8 6
7 10 10 11 12 13 13 12 12 11 11 10 9 9 10 10 9 7 7 3 4 6 5 5 5 4 5 5 5 3 5 7 7
9 8 7 8 9 9 10 9 9 9 8 7 7 8 8 9 8 8 5 6 7 9 9 8 7 6 5 5 7 8 7 3 2
6 7 6 5 6 6 6 6 6 5 5 5 5 6 7 7 6 7 6 6 5 8 10 11 10 10 7 6 4 5 6 8 8
3 4 4 4 3 4 4 3 3 2 2 2 2 3 4 5 6 6 6 5 3 5 9 12 12 11 10 8 6 4 4 5 7
4 5 5 4 4 3 2 1 0 1 2 2 2 3 4 5 6 6 8 6 2 8 10 14 13 11 11 9 8 7 5 4 2
5 6 6 6 6 5 4 3 3 3 3 4 4 4 5 6 6 6 7 7 5 8 11 14 13 11 10 10 8 7 7 6 4
5 6 6 7 6 6 5 5 5 6 6 6 6 7 7 7 8 8 8 8 7 9 13 14 13 12 11 9 9 7 7 7 6
5 7 8 8 7 8 7 7 8 9 9 9 9 10 10 10 10 10 9 10 10 11 14 13 13 12 12 10 9 8 7 7 6
6 7 8 9 9 8 8 8 8 9 10 11 11 12 11 11 11 10 11 11 11 11 13 17 15 14 13 12 11 9 8 8 8
9 8 8 9 9 9 9 9 9 9 10 9 10 10 10 11 12 12 12 12 12 13 14 15 16 16 14 14 13 11 10 9 9
10 10 10 9 10 11 12 12 12 12 12 11 11 12 12 13 14 15 15 16 15 14 14 15 16 16 15 14 14 15 13 11 9
10 11 10 10 11 12 12 13 13 14 14 13 12 13 16 16 17 18 19 19 19 18 15 14 15 16 16 15 15 15 17 16 13
12 13 12 12 13 14 14 15 16 15 14 15 18 19 20 20 21 21 22 22 22 23 23 19 17 17 17 17 17 17 17 19 18
15 16 16 16 18 19 19 20 19 20 20 20 25 25 25 24 24 24 24 24 25 24 24 24 23 21 20 20 19 18 18 20 20
18 19 19 20 21 22 21 20 21 23 21 24 25 20 19 24 24 16 15 17 15 17 19 19 20 21 21 21 21 20 19 19 21
23 24 25 25 25 25 25 26 25 26 25 24 22 19 17 19 16 11 11 16 18 16 17 19 17 17 19 21 20 20 21 21 20
25 27 28 29 29 29 28 29 29 29 29 27 23 15 16 10 13 15 18 17 17 18 18 19 18 17 16 15 16 19 21 23 23
26 27 28 29 29 29 27 27 27 27 28 27 27 27 26 19 13 12 17 19 20 19 17 17 18 19 20 18 18 17 19 23 25
26 27 28 28 29 29 30 30 30 29 29 28 27 25 25 22 22 18 16 15 13 17 18 18 20 21 19 17 18 20 21 22 24

GFSFLT1_850_spd_063.txt.gz
Wind_Speed
10 12 13 14 14 14 14 13 12 12 12 12 13 13 13 14 10 9 11 6 7 6 5 5 5 5 5 6 7 9 10 10 10
9 11 11 11 12 13 12 11 10 11 10 10 10 11 11 10 8 7 2 6 9 9 8 7 7 6 6 6 7 5 4 6 8
10 10 10 9 10 9 9 9 8 8 8 8 7 8 9 8 7 7 6 7 8 11 11 11 11 10 8 7 6 6 6 5 2
8 8 8 7 7 7 7 6 6 5 5 5 5 6 7 7 5 6 4 6 4 7 11 13 12 12 10 8 6 5 6 6 7
4 3 4 4 4 4 4 4 3 3 2 2 3 4 4 4 6 6 8 8 6 4 9 13 13 13 12 11 9 7 6 6 7
3 4 3 3 3 3 2 1 1 0 0 1 2 3 4 3 4 5 8 8 8 8 7 13 13 13 12 11 10 8 7 6 5
8 5 6 5 5 4 4 3 2 2 3 5 3 4 4 5 6 7 8 8 8 8 10 12 13 12 12 11 11 9 8 8 7
7 5 6 6 7 6 6 5 4 4 5 6 5 6 7 5 8 9 9 10 10 9 8 11 12 12 12 11 11 10 9 8 7
6 6 6 6 7 5 6 5 6 8 8 7 7 8 9 7 8 8 10 11 12 12 11 11 12 12 12 12 11 11 10 9 8
6 6 7 7 7 7 7 7 7 7 7 7 8 8 9 8 9 10 12 11 12 12 12 14 15 14 14 12 11 10 10 10 9
7 7 7 7 8 8 7 7 7 7 7 7 8 9 9 10 10 11 12 13 12 12 12 13 15 15 16 14 14 13 10 9 9
8 8 7 7 8 8 9 9 10 10 9 9 9 9 10 10 12 14 15 16 17 15 14 14 14 14 15 13 15 16 15 12 8
9 9 9 8 8 9 9 9 9 10 10 10 10 11 12 13 13 15 16 18 18 19 18 15 15 15 16 15 14 17 17 18 16
10 9 9 9 10 11 11 11 11 12 12 14 13 14 15 15 15 16 17 17 21 22 19 22 21 20 19 18 16 17 19 19 19
12 11 11 12 13 13 14 15 15 15 16 16 17 18 20 19 17 17 17 19 17 21 21 20 21 19 19 20 20 19 19 20 21
15 15 13 14 15 16 16 17 19 19 20 20 23 21 17 17 20 19 15 13 18 16 16 13 12 13 16 16 18 20 20 20 21
19 19 18 16 18 20 18 18 21 21 20 19 20 18 19 16 18 17 13 15 14 19 17 16 14 14 14 15 17 17 19 21 21
21 22 23 24 24 25 25 25 24 24 24 23 21 13 11 10 12 12 16 18 17 16 18 15 17 18 17 18 17 17 18 20 22
23 24 24 26 27 28 29 28 28 25 25 25 25 26 26 18 18 19 17 16 16 16 17 15 15 18 17 18 21 21 20 20 21
23 24 26 26 27 27 27 27 28 28 28 27 24 25 26 26 24 21 20 15 18 15 13 15 15 16 17 18 16 15 16 17 19

GFSFLT1_850_spd_066.txt.gz
Wind_Speed
14 16 16 16 16 15 15 14 14 15 15 15 16 15 16 15 11 8 11 11 11 10 8 9 8 8 7 7 6 7 9 11 11
13 15 15 16 15 15 14 13 13 12 12 12 13 12 12 11 8 5 9 10 12 12 12 11 12 11 10 8 7 5 3 4 6
12 13 13 13 13 12 11 11 10 10 9 9 9 9 9 9 8 8 9 6 8 10 12 12 13 13 12 11 9 7 5 5 4
10 10 10 10 10 9 8 7 7 6 6 6 7 7 7 8 6 7 9 7 4 7 11 13 12 12 12 10 9 8 7 6 6
7 7 7 6 6 6 6 5 4 3 3 3 4 4 4 7 6 6 8 8 6 5 7 11 13 12 11 11 9 8 7 7 7
4 5 4 4 4 4 3 2 1 1 1 2 3 3 3 4 4 7 8 9 9 8 6 8 11 11 11 11 10 9 8 7 7
3 2 2 2 3 3 2 1 1 2 2 0 3 3 4 5 6 8 8 9 10 11 12 9 11 11 11 11 10 10 9 8 7
7 4 4 5 4 4 3 3 4 5 3 7 6 6 6 6 7 10 9 10 11 10 10 11 11 11 11 11 10 10 9 8 8
6 4 5 5 3 5 4 4 7 9 7 7 7 8 9 8 7 11 10 11 12 12 12 11 11 11 12 11 11 9 9 8 8
6 6 7 5 4 4 6 6 7 8 8 9 10 9 9 9 9 12 12 11 11 12 13 14 14 14 14 14 11 10 9 9 8
7 7 7 7 8 8 7 7 6 7 8 9 9 10 12 11 12 12 14 14 13 13 13 13 14 16 15 16 15 13 10 9 9
9 8 7 7 7 7 8 9 11 13 13 12 10 10 12 13 14 16 17 17 17 16 14 14 14 14 15 16 15 14 14 13 9
10 9 10 10 8 9 9 10 10 10 11 11 11 11 13 15 18 17 18 19 21 21 19 18 16 16 17 16 15 16 17 15 15
10 9 8 8 9 11 11 10 11 12 12 13 15 16 17 19 20 20 19 17 19 19 21 21 21 19 18 19 18 17 17 19 18
11 10 10 9 10 11 12 13 15 17 18 20 21 22 20 23 23 19 17 17 20 19 17 20 16 16 15 14 16 18 18 19 19
12 13 12 12 14 14 13 15 16 18 19 22 24 23 21 18 18 19 19 18 13 17 19 18 14 12 13 14 13 14 16 19 19
17 16 15 14 16 16 17 17 20 21 21 23 23 23 21 22 13 16 20 16 15 17 20 17 14 14 13 15 17 17 17 17 19
16 17 18 18 20 21 21 23 23 26 26 26 25 16 15 12 12 11 13 15 18 17 17 16 15 16 17 18 18 18 19 18 18
16 18 20 22 23 23 25 24 26 27 28 26 25 27 27 25 15 18 18 17 18 20 20 18 12 16 18 19 18 19 19 22 19
17 19 20 22 23 24 25 24 24 23 24 24 23 23 23 24 25 25 24 21 20 17 14 13 15 15 17 18 17 16 15 15 16

GFSFLT1_850_spd_069.txt.gz
Wind_Speed
18 18 18 18 18 18 18 18 18 19 18 16 14 13 11 11 12 13 12 13 13 12 12 12 11 10 9 6 5 4 6 7 9
18 19 19 18 18 17 16 16 15 15 15 13 12 12 9 8 10 11 10 11 12 12 12 12 12 11 10 9 7 5 3 3 3
17 17 17 16 15 14 13 13 12 12 11 11 9 7 9 7 9 10 9 7 8 10 11 12 12 12 11 10 9 8 7 5 3
15 15 15 14 12 11 10 9 8 8 8 7 7 6 7 5 7 8 9 8 6 6 8 10 11 11 11 10 9 9 8 7 6
11 11 10 10 9 8 7 6 5 5 5 4 4 3 4 4 6 7 8 8 7 7 7 8 10 10 10 10 9 9 8 8 7
10 9 8 7 6 6 5 4 3 2 2 2 2 1 3 4 6 7 7 9 9 9 8 9 9 10 10 9 9 9 8 7 7
7 7 6 5 5 4 3 2 1 1 1 1 1 3 4 6 7 7 8 9 10 11 11 10 10 10 11 11 10 9 8 7 7
2 2 3 4 4 5 4 3 2 2 4 3 4 4 5 6 8 8 8 9 9 10 10 10 10 11 11 11 11 10 9 8 7
7 6 4 3 4 4 5 3 4 3 5 6 5 7 7 6 7 8 9 9 10 10 10 10 11 11 12 12 12 10 9 8 8
8 6 5 4 5 4 4 3 4 6 6 7 8 7 7 8 9 10 11 11 11 11 12 13 13 12 13 14 12 9 8 8 8
9 9 6 5 5 5 6 6 5 5 7 8 9 10 10 11 12 13 13 13 13 13 13 13 13 14 16 14 15 13 10 8 8
10 10 9 7 7 7 8 7 8 9 11 12 12 10 9 12 14 15 17 17 18 17 16 14 13 14 15 15 16 16 14 13 10
12 11 11 9 8 7 7 9 9 9 9 8 8 10 11 14 16 17 20 21 19 19 18 17 18 16 16 16 17 17 17 17 15
13 12 11 11 10 10 9 9 9 9 10 12 13 16 18 18 19 22 23 22 18 18 18 16 18 18 16 16 16 18 18 17 18
12 12 11 10 9 10 11 11 12 13 15 17 18 20 22 22 22 23 20 16 18 18 19 17 18 16 14 12 12 13 16 18 18
12 12 12 11 13 13 13 13 15 16 15 18 22 23 21 21 20 21 19 18 19 19 14 16 18 16 13 13 12 12 14 14 17
14 15 15 16 15 15 16 17 17 18 18 20 22 27 25 23 18 13 13 16 20 15 17 19 17 14 15 12 15 15 15 16 17
21 20 18 18 18 18 17 18 20 23 23 23 24 14 11 12 11 14 13 15 17 18 22 18 18 16 16 16 16 17 17 18 18
18 18 18 19 20 21 21 23 24 28 27 26 25 27 25 22 14 13 13 17 16 19 22 18 17 17 14 14 15 17 18 19 19
17 19 21 21 20 20 21 22 23 23 23 21 22 23 25 25 25 21 22 22 22 20 20 20 20 15 14 14 16 19 17 16 16

GFSFLT1_850_spd_072.txt.gz
Wind_Speed
20 19 21 21 21 21 21 20 18 16 15 13 12 12 12 10 11 12 12 13 13 12 12 12 12 11 9 7 6 5 4 5 7
21 21 20 20 20 20 19 18 17 14 12 10 8 8 9 10 10 10 9 10 11 11 11 11 11 11 11 9 8 6 5 3 1
20 20 19 18 17 17 16 15 14 12 10 9 8 5 7 7 8 9 8 7 7 9 10 11 11 11 10 10 9 8 7 6 4
17 18 17 16 15 14 13 12 11 9 8 6 6 4 5 6 6 7 8 8 8 7 8 10 10 10 10 10 9 9 8 7 7
14 13 13 12 11 10 9 8 8 7 6 4 3 2 3 4 5 7 8 9 9 9 9 10 9 10 10 10 10 9 8 8 7
12 12 11 10 9 8 7 6 5 4 4 3 2 0 2 4 5 6 7 8 10 10 9 10 10 10 10 10 10 10 10 9 8
12 10 9 8 7 6 6 5 4 3 2 2 2 2 3 5 5 6 7 8 9 10 10 10 10 11 11 11 11 10 10 9 8
11 9 8 8 8 7 6 6 5 4 2 3 3 3 3 4 6 6 6 7 8 9 10 10 11 11 11 12 12 11 10 9 9
9 8 7 8 8 8 7 6 5 3 2 1 2 3 3 4 6 6 7 7 9 10 10 10 11 11 10 11 11 10 9 9 9
7 8 8 7 8 7 7 6 5 4 3 3 4 4 5 6 6 7 7 8 9 10 12 13 14 13 11 13 12 9 8 8 8
9 11 9 8 7 7 7 6 5 4 5 6 7 7 8 7 8 9 9 11 12 12 12 13 13 12 15 16 15 13 10 9 8
13 12 11 8 7 7 7 7 7 8 9 9 11 10 9 9 11 13 15 14 15 14 13 14 13 13 14 16 16 16 18 14 11
14 12 12 9 8 8 8 9 10 10 11 11 9 9 11 12 13 15 17 18 19 18 16 16 14 16 14 14 16 17 16 18 17
13 14 12 12 11 10 9 9 10 10 10 11 13 14 15 17 19 20 20 21 22 20 15 15 15 17 16 15 14 14 15 16 16
13 14 14 13 12 10 9 11 12 12 14 16 17 19 21 21 19 20 19 19 20 18 14 15 15 15 17 15 12 12 13 13 15
15 14 14 14 12 12 13 15 16 16 15 19 20 23 23 24 22 20 20 20 18 18 21 16 14 16 18 13 11 10 12 15 15
17 15 14 14 13 15 17 19 20 19 17 20 23 27 26 24 17 15 13 15 13 17 17 15 14 16 15 13 12 13 13 15 16
20 19 17 17 18 19 19 18 19 21 22 21 23 15 11 14 14 11 16 16 13 14 14 18 18 19 15 14 13 14 15 16 20
24 23 21 21 21 21 21 22 24 26 28 27 29 28 29 28 17 16 13 15 14 15 16 19 22 18 16 15 14 12 13 17 18
25 24 23 20 20 21 22 24 25 25 26 25 25 23 22 23 25 24 21 21 19 19 21 20 18 17 16 15 13 14 14 15 15

GFSFLT1_850_spd_075.txt.gz
Wind_Speed
15 13 19 20 20 20 19 17 16 15 15 14 14 12 12 13 12 12 12 12 13 13 13 13 13 12 11 11 9 8 6 8 7
21 21 21 21 20 19 18 16 13 12 10 11 10 10 10 10 10 9 9 10 11 12 13 13 13 12 12 11 10 9 9 6 3
22 22 22 21 20 18 16 14 12 10 8 6 8 7 7 7 8 9 8 8 8 9 11 12 12 12 12 11 11 10 10 8 7
21 21 20 19 18 16 15 13 11 9 8 5 4 5 5 5 5 7 8 8 9 9 10 11 11 11 11 11 11 11 10 9 9
17 17 16 15 14 13 12 10 9 7 5 4 2 2 3 3 4 5 7 8 8 9 9 10 9 10 11 11 11 11 11 10 10
15 14 13 12 11 10 9 8 7 6 4 3 2 1 2 3 4 6 6 8 9 9 9 9 9 10 10 11 11 11 11 10 10
13 12 12 11 10 9 8 7 7 6 4 3 2 3 3 4 3 4 5 6 7 9 9 9 10 10 10 11 11 11 10 10 10
14 11 10 10 10 9 8 7 6 5 4 4 4 3 4 4 4 4 4 5 7 8 9 9 10 10 10 10 10 11 9 9 9
12 10 9 10 9 9 8 7 6 5 4 4 3 2 3 3 4 5 5 6 7 8 10 11 11 12 10 9 10 10 9 9 9
11 10 10 9 10 9 9 7 6 6 5 4 4 4 3 5 5 5 6 7 8 9 11 12 14 12 11 13 12 10 9 9 9
10 10 10 10 8 9 8 7 7 6 6 6 6 6 7 7 7 7 8 9 10 11 11 11 12 12 14 16 15 13 12 10 10
10 9 11 10 9 9 9 8 8 7 8 8 9 11 9 8 10 11 14 14 16 16 13 13 12 12 13 13 13 15 16 15 13
10 12 11 11 11 10 9 8 8 9 10 11 10 9 11 11 12 14 16 17 17 17 18 17 14 13 15 15 15 14 14 15 16
12 12 12 13 12 10 9 9 10 10 9 11 11 13 15 18 19 21 19 21 20 20 21 15 14 15 14 14 16 16 14 13 12
15 12 13 15 14 13 12 11 9 10 11 14 16 18 19 20 24 23 20 19 18 18 18 15 16 15 12 14 15 13 14 13 13
18 14 13 16 15 12 9 11 13 14 14 17 20 21 23 24 25 24 23 21 19 19 15 16 17 12 11 15 13 11 12 13 14
20 16 16 15 15 13 14 15 17 18 17 19 20 26 26 21 9 15 17 15 14 10 13 15 12 11 12 15 14 13 13 15 17
20 20 17 15 16 16 17 17 18 19 19 18 18 13 11 22 23 13 17 17 20 16 13 13 13 14 15 16 15 15 14 15 14
22 22 19 18 18 19 19 21 22 21 23 25 26 27 28 27 17 10 11 15 15 14 14 16 19 21 18 16 16 14 14 14 16
25 23 19 16 18 21 23 25 23 23 25 25 26 27 24 23 23 26 23 21 21 20 18 18 18 18 17 18 16 14 15 16 15

GFSFLT1_850_spd_078.txt.gz
Wind_Speed
15 12 16 19 19 19 18 19 19 18 16 15 14 14 14 13 13 12 12 13 14 14 14 14 14 13 13 12 11 11 9 8 6
11 19 20 19 19 18 16 15 15 14 13 12 11 11 11 11 10 10 10 11 11 12 12 13 13 13 13 12 12 11 10 10 8
21 22 21 20 19 17 15 13 11 10 9 9 9 8 9 8 9 9 9 9 10 10 11 11 12 12 12 12 11 11 11 10 10
23 22 21 19 18 16 13 11 9 6 6 6 6 6 6 6 7 7 8 8 9 10 10 10 11 11 11 11 11 11 11 10 10
21 21 19 18 16 14 11 10 8 6 4 3 3 3 4 4 5 6 6 7 8 9 9 10 10 10 10 11 10 10 10 11 10
20 18 17 16 14 13 11 9 7 6 4 2 1 1 2 3 3 4 5 6 8 8 9 9 9 10 10 10 10 10 10 10 9
16 15 15 14 13 11 10 9 7 5 4 3 2 2 2 3 2 3 4 5 7 7 8 8 8 9 9 9 10 10 9 9 9
15 14 13 12 11 10 9 8 7 7 5 4 3 3 3 3 2 3 3 4 6 7 8 9 9 10 9 8 9 9 9 8 8
14 12 11 11 11 10 9 8 7 6 5 4 3 2 2 2 2 3 4 4 5 7 8 10 11 11 8 8 10 9 8 8 8
12 11 10 11 12 11 10 9 7 7 6 5 4 3 3 4 4 4 4 5 6 8 9 11 11 10 12 12 13 10 9 9 8
12 11 11 11 10 10 10 10 8 8 7 6 5 5 5 6 5 5 6 9 10 11 11 11 11 11 14 14 13 14 13 12 10
11 10 11 10 10 11 10 10 9 8 8 6 7 8 6 5 6 8 9 11 13 14 15 15 13 11 13 14 13 14 14 13 13
11 11 10 11 12 12 11 10 9 8 8 8 7 6 7 9 10 12 14 15 15 15 18 18 17 15 13 15 14 15 16 15 12
13 10 10 11 13 12 11 10 9 8 7 6 7 9 11 14 15 18 19 18 19 18 17 18 16 13 13 15 13 16 14 15 13
14 12 11 13 14 14 13 10 9 6 7 10 12 14 16 16 19 19 22 22 22 21 18 18 13 14 15 13 12 15 14 14 14
20 18 14 14 16 14 12 9 8 10 11 13 16 19 21 21 22 20 16 15 16 18 16 14 12 16 15 11 13 16 14 14 13
25 22 18 15 15 15 13 11 12 12 13 15 17 18 20 11 8 14 20 14 13 9 9 12 14 12 11 10 17 15 15 16 16
23 24 23 17 14 14 15 13 13 14 14 15 15 10 9 23 19 17 16 17 15 18 18 12 13 13 15 16 17 16 16 15 15
26 24 23 20 16 15 13 12 13 16 19 20 22 22 25 26 20 19 13 15 15 15 14 14 15 17 18 20 19 17 16 15 14
20 19 21 20 16 11 10 12 15 18 22 23 24 23 22 20 20 26 24 19 16 18 18 19 18 20 18 18 18 16 16 16 16

GFSFLT1_850_spd_081.txt.gz
Wind_Speed
16 15 18 21 21 22 22 21 19 18 16 14 14 14 14 13 13 12 12 14 14 13 13 13 13 13 12 11 10 8 7 5 4
14 18 20 22 21 21 20 19 17 15 14 12 12 12 12 11 10 10 10 11 10 11 11 11 12 12 11 11 10 10 9 8 8
16 21 21 21 20 19 18 16 14 12 11 10 9 9 9 9 9 9 9 9 10 10 10 10 10 10 10 10 10 10 9 9 9
22 22 21 21 19 17 14 12 11 10 9 8 7 7 6 6 7 7 8 8 8 8 9 9 9 9 9 9 9 9 8 8 8
24 23 21 20 18 15 13 10 9 7 6 6 5 4 4 4 5 5 6 6 7 7 8 8 8 9 9 9 9 8 8 8 8
23 21 19 18 16 14 12 9 7 5 5 3 2 2 2 2 3 3 4 5 6 6 7 7 8 8 8 9 8 8 8 8 8
20 19 18 16 15 13 12 10 8 7 5 4 3 1 0 1 1 1 2 3 4 5 6 6 7 8 8 7 7 7 7 7 8
20 19 18 16 14 13 11 10 9 7 6 5 4 3 2 1 1 1 1 2 3 4 5 6 7 8 7 7 7 8 8 7 7
18 17 16 15 14 13 12 10 9 8 7 6 5 4 3 2 2 2 1 2 3 4 6 8 9 10 6 7 10 9 8 7 7
14 14 13 13 13 12 12 11 10 9 8 6 5 5 4 4 4 3 2 3 4 6 7 9 11 10 9 10 9 7 8 8 8
14 14 13 12 12 13 13 12 11 10 9 8 6 6 5 5 5 3 3 4 7 9 10 12 12 10 11 14 14 11 11 12 12
14 14 13 13 12 13 13 13 12 10 9 8 6 6 6 4 4 6 6 8 9 12 11 13 14 14 11 13 13 14 11 11 11
17 15 13 13 14 13 13 13 12 10 9 7 6 4 4 6 7 9 12 13 15 16 15 15 17 16 13 13 13 13 14 14 11
18 15 12 13 14 14 14 13 12 10 8 6 4 5 7 10 12 13 15 16 18 17 16 15 16 15 13 14 14 15 14 14 13
20 17 13 14 14 15 15 13 11 9 6 4 7 9 12 13 16 17 18 18 17 17 18 17 17 13 13 13 17 14 16 15 14
23 19 16 16 15 14 15 14 12 9 7 7 9 13 17 15 15 11 10 13 16 11 13 12 14 13 13 14 15 14 16 17 14
27 26 23 20 17 17 17 16 13 11 9 10 11 9 12 3 4 19 14 16 10 9 9 10 12 17 15 12 14 13 15 16 16
31 25 25 25 24 20 19 19 16 13 11 9 9 5 4 18 12 16 18 11 12 13 13 13 13 11 13 14 15 17 19 18 16
27 24 22 23 22 20 19 18 16 13 10 11 15 14 16 10 12 15 17 17 17 14 14 15 12 13 16 18 19 19 20 18 14
19 22 24 19 15 20 16 11 11 9 10 10 12 15 18 17 18 21 21 18 18 19 17 15 17 21 20 20 19 17 17 15 15

GFSFLT1_850_spd_084.txt.gz
Wind_Speed
17 17 20 21 20 23 22 21 19 18 16 15 14 14 13 12 11 11 11 10 10 10 10 10 10 10 9 9 7 5 4 3 0
16 20 21 21 22 23 21 19 17 15 14 13 13 12 10 9 9 9 8 8 9 9 9 9 9 9 9 8 7 7 6 5 5
17 21 22 21 22 21 20 18 15 13 12 11 10 9 9 8 7 7 6 7 7 8 7 8 8 8 8 8 7 7 7 7 7
19 22 22 21 21 20 18 15 13 11 10 9 8 7 6 6 5 5 4 5 6 6 6 7 7 7 8 7 7 7 7 7 6
22 22 22 22 20 17 15 13 11 9 8 7 6 5 4 3 3 3 3 3 4 5 5 5 6 7 7 7 7 7 7 7 7
23 22 22 20 17 15 13 11 10 8 7 5 4 3 3 2 2 2 1 2 2 3 4 4 5 6 7 7 7 7 7 7 6
17 22 20 19 17 15 13 11 9 7 6 6 5 4 4 3 3 3 2 0 1 2 3 4 5 7 7 6 6 7 7 7 6
21 20 20 19 17 15 13 10 9 9 8 7 6 6 5 4 4 4 3 3 2 2 3 4 5 6 6 5 6 8 7 6 5
21 18 19 18 18 15 14 12 12 11 10 8 8 7 6 5 5 5 4 3 2 2 3 5 7 8 6 6 8 8 6 6 6
21 20 19 18 17 16 15 14 13 12 11 9 8 7 6 6 6 5 6 4 4 5 6 7 10 12 9 8 9 8 8 7 8
20 19 19 18 17 17 16 15 14 13 12 9 9 9 8 8 7 6 6 7 6 7 9 9 10 11 12 15 13 9 9 10 9
17 17 17 16 16 16 17 17 15 14 13 11 9 9 7 8 7 7 7 9 10 11 12 13 13 13 13 12 15 13 11 10 11
17 16 16 16 16 16 16 15 15 14 11 9 8 8 8 7 8 8 9 9 12 13 15 16 18 17 15 14 14 14 12 10 12
19 18 17 17 17 17 16 16 15 12 11 11 9 8 7 8 9 9 11 11 15 15 17 17 17 16 15 15 14 16 15 13 12
20 20 19 18 19 18 19 18 17 14 11 10 8 8 8 9 10 10 11 11 14 13 17 15 13 15 15 14 13 16 17 13 14
21 22 22 21 19 18 19 18 17 17 14 10 10 9 9 11 11 8 7 9 14 12 12 10 10 11 13 15 16 17 16 15 13
20 26 26 24 23 20 21 21 18 16 17 13 10 8 6 5 6 9 8 10 11 11 11 13 13 12 14 17 16 15 14 12 17
22 27 31 31 29 27 23 22 21 21 19 17 10 5 6 5 8 7 10 11 9 13 15 13 13 14 13 12 13 15 15 15 17
21 24 26 25 30 32 30 24 24 22 20 19 15 13 9 7 7 8 10 12 12 13 14 14 15 13 14 15 16 18 18 19 19
14 18 17 20 20 22 25 22 26 24 18 13 11 11 13 14 14 12 10 13 13 14 18 18 15 15 18 19 20 19 19 18 18

GFSFLT1_850_spd_087.txt.gz
Wind_Speed
18 17 18 19 20 22 20 19 17 16 14 14 14 14 13 14 9 9 9 8 9 9 9 9 9 9 8 7 5 5 4 3 2
18 19 20 19 21 22 21 19 17 15 14 13 12 11 10 9 8 7 5 7 7 8 8 8 8 8 8 8 7 6 5 4 4
20 21 21 20 23 22 20 18 16 14 13 12 10 9 9 7 7 6 4 5 6 7 7 7 8 8 8 8 7 7 6 6 6
21 23 21 23 23 21 19 16 14 12 10 9 8 7 6 7 4 5 2 4 5 5 5 6 7 7 8 8 7 7 7 7 7
22 23 21 22 22 20 18 15 12 11 9 7 6 5 5 3 3 4 1 2 3 4 4 4 5 6 7 7 7 7 7 8 8
23 23 21 21 20 19 16 14 11 9 7 6 5 4 3 2 2 3 2 1 1 2 2 3 4 5 6 6 6 6 7 7 7
16 23 22 20 19 17 15 13 11 8 6 6 5 3 4 3 4 6 3 2 1 1 2 3 4 6 7 6 6 7 7 7 7
21 22 22 21 19 16 14 12 11 9 7 7 4 5 6 3 4 6 5 4 4 3 2 3 5 6 6 5 6 8 8 7 6
18 19 20 18 18 12 12 10 8 10 9 7 6 6 5 4 5 7 6 5 5 4 4 4 6 8 7 7 8 8 8 7 8
17 15 15 14 14 13 12 12 11 10 9 8 8 7 6 5 6 6 7 7 6 6 7 7 8 8 9 8 11 9 7 7 7
20 17 17 15 15 15 13 11 10 10 10 9 8 7 8 7 7 5 8 9 9 8 9 9 10 10 12 12 14 10 9 8 7
17 17 17 16 15 13 13 12 11 10 10 10 10 9 8 8 6 7 6 9 12 11 12 14 13 13 12 12 15 13 11 10 8
17 14 13 13 13 15 15 15 14 13 11 10 10 10 9 9 8 8 8 8 9 12 13 16 15 16 16 14 14 16 12 9 11
17 17 16 13 15 14 14 13 13 13 12 12 11 11 9 9 8 8 8 10 13 11 12 17 15 16 16 14 14 17 15 13 11
19 17 16 13 15 14 14 14 14 13 12 12 12 11 11 10 10 9 9 10 10 9 11 12 10 13 12 14 13 15 13 15 13
18 18 16 16 17 16 16 15 16 16 15 14 14 14 12 12 11 10 9 7 7 10 8 8 8 7 12 12 12 14 14 15 13
17 18 17 17 17 19 18 19 19 19 19 20 12 11 12 11 11 10 7 6 9 7 9 11 13 11 12 15 13 14 15 16 13
15 17 18 22 24 27 26 22 24 23 22 24 12 8 7 11 7 10 6 6 7 6 11 11 12 12 15 14 12 13 14 15 16
15 18 19 20 25 25 26 29 26 25 26 23 22 14 7 6 5 9 10 10 9 9 10 11 14 14 15 13 14 14 15 15 17
20 16 18 20 17 19 22 21 26 27 27 24 24 21 13 7 8 11 13 13 11 11 11 11 12 14 13 15 18 16 16 17 20

GFSFLT1_850_spd_090.txt.gz
Wind_Speed
17 15 17 20 20 17 19 19 18 16 14 14 14 14 12 12 8 7 8 8 9 9 9 9 9 9 8 7 7 6 6 6 6
18 18 20 20 20 21 19 18 17 15 14 13 13 11 11 11 4 5 6 7 7 8 8 9 9 9 9 8 8 8 8 8 8
19 19 21 20 23 21 19 18 16 15 13 12 10 9 10 8 5 5 5 6 6 7 7 8 8 8 9 9 8 8 7 7 7
20 21 21 22 23 20 19 17 15 14 13 11 9 8 8 6 5 2 4 4 5 6 6 6 7 8 9 9 9 8 8 9 9
21 21 20 24 24 21 19 16 14 12 11 10 8 7 6 4 6 3 1 2 3 4 4 5 6 7 8 8 8 8 9 9 9
25 23 19 23 23 21 18 15 12 10 9 8 7 6 4 2 0 3 1 1 1 2 3 4 5 6 7 7 6 7 8 8 8
24 24 20 20 22 20 17 14 12 10 8 6 5 4 3 4 5 5 3 2 1 1 2 3 5 6 7 6 6 8 8 8 7
22 25 24 23 22 19 17 14 12 9 8 4 4 4 4 5 6 6 4 4 3 3 3 3 4 5 6 6 7 9 8 7 6
23 23 24 23 21 19 15 13 11 11 9 9 5 5 7 8 7 6 6 5 5 4 3 4 6 7 6 5 6 9 8 8 8
23 20 22 21 19 17 13 12 8 9 11 10 8 9 6 2 7 8 8 7 6 5 5 6 6 6 9 9 9 9 7 8 8
24 17 18 17 15 15 15 15 15 12 8 8 10 9 7 9 10 11 8 7 7 9 8 8 8 7 9 10 12 10 9 8 8
25 23 22 21 21 19 16 11 9 13 13 12 8 9 11 8 10 10 8 8 9 8 9 10 10 11 10 10 12 13 11 10 8
25 25 23 21 18 16 15 16 17 17 14 15 14 11 11 13 9 9 8 8 9 10 11 11 13 14 12 10 10 14 12 10 9
22 21 17 15 14 15 16 16 15 15 15 14 11 11 12 10 11 13 10 8 12 15 17 14 13 12 10 11 11 13 12 10 10
20 20 18 16 14 16 15 14 13 14 13 14 14 16 15 13 12 10 9 11 16 17 14 12 9 8 10 8 10 12 12 12 11
19 17 16 16 16 16 15 15 15 16 16 14 15 13 15 15 12 11 15 17 15 11 10 8 8 9 13 9 9 10 10 14 13
21 20 17 17 18 18 16 16 16 16 16 20 17 17 20 20 17 17 16 14 13 12 10 9 10 11 14 13 12 12 12 13 12
16 17 16 16 19 21 22 22 21 20 19 22 21 9 10 18 21 18 17 14 10 8 12 13 11 10 13 15 14 12 11 13 12
15 14 14 17 19 22 26 27 24 22 22 23 28 21 10 14 12 18 15 12 9 11 15 15 14 13 15 14 12 11 12 13 13
5 4 11 16 21 24 24 18 19 24 26 27 26 34 26 14 14 15 9 7 13 14 15 15 17 18 14 14 13 13 14 14 13

GFSFLT1_850_spd_093.txt.gz
Wind_Speed
19 19 22 19 17 19 19 20 19 17 16 17 16 13 11 8 8 8 8 8 9 9 9 9 9 9 9 8 8 7 8 8 9
19 21 23 20 18 23 23 20 18 17 16 16 14 11 9 7 8 7 7 7 8 8 9 9 9 9 9 8 8 8 9 8 9
19 20 23 21 21 23 21 19 17 16 16 15 12 10 8 6 7 6 6 6 7 7 8 8 8 8 9 9 8 8 8 9 8
21 20 22 21 24 21 21 19 17 16 15 13 12 9 8 4 4 6 6 5 6 6 6 6 6 7 8 8 8 8 8 8 9
21 21 21 23 22 22 21 18 16 15 14 12 11 9 7 3 2 3 4 4 4 4 4 5 5 7 7 7 7 8 8 9 9
23 23 22 22 22 23 21 18 15 14 12 11 10 8 6 5 2 2 2 1 2 2 3 4 5 6 7 7 7 8 8 8 8
23 24 23 21 25 23 21 18 15 13 11 9 8 7 5 2 2 2 1 1 1 2 2 3 3 5 5 5 6 8 8 7 7
26 26 24 26 26 24 21 19 16 12 10 9 7 7 6 4 4 3 2 3 3 2 2 2 3 4 3 3 4 7 7 7 7
27 30 27 27 27 24 20 17 14 12 11 10 6 7 5 7 7 3 3 4 4 4 3 4 5 5 4 3 4 6 5 5 5
25 28 29 28 26 23 19 16 14 12 10 8 7 8 6 7 8 5 6 5 4 5 5 6 6 6 6 7 6 7 6 5 6
23 25 26 24 24 21 18 16 14 12 8 10 12 11 11 8 8 8 9 5 4 5 6 6 7 8 8 9 9 9 8 7 7
24 23 23 25 23 20 20 15 14 12 11 11 11 10 11 11 13 13 11 5 6 6 5 7 8 9 9 10 11 11 11 10 8
25 25 24 25 24 21 20 18 17 17 15 15 13 14 13 13 12 8 8 9 7 9 10 12 15 13 12 11 12 12 13 11 9
28 28 25 25 25 23 21 20 18 18 18 17 16 16 16 14 15 12 12 12 10 13 14 16 15 12 10 9 12 13 13 12 11
30 32 30 26 25 23 20 19 18 17 16 16 17 15 16 14 12 12 12 13 15 15 16 17 13 10 9 8 8 12 13 14 12
27 29 28 26 24 21 19 16 17 16 14 13 13 15 17 17 16 15 16 16 17 18 19 14 11 10 10 9 9 10 12 12 12
30 29 28 26 25 22 19 18 17 17 16 18 16 14 18 20 20 20 21 22 22 21 15 13 10 11 12 11 11 11 11 12 13
32 30 29 27 26 24 20 19 20 19 17 18 18 8 11 16 25 23 25 25 23 18 15 12 12 13 13 13 13 12 11 12 13
27 28 30 26 24 25 22 22 23 22 22 22 24 25 9 5 9 24 25 22 18 12 12 15 16 15 14 15 14 12 12 13 12
40 30 26 22 22 20 22 18 22 24 27 26 24 24 20 24 15 16 28 22 15 11 13 17 16 18 16 15 13 13 13 14 14

GFSFLT1_850_spd_096.txt.gz
Wind_Speed
19 20 20 19 18 16 14 17 21 20 17 15 11 9 8 9 8 8 8 8 9 9 9 10 9 8 8 8 8 8 9 9 10
19 22 20 19 18 18 17 20 19 18 17 15 11 8 9 8 7 7 7 7 8 8 9 9 8 8 8 8 8 8 8 9 10
20 23 20 17 18 20 22 20 19 17 18 15 11 8 9 8 7 7 6 7 7 7 7 7 7 8 8 8 8 8 9 9 9
19 22 20 19 18 24 23 20 18 18 17 14 10 7 6 6 6 6 6 6 6 6 5 6 6 7 7 7 7 8 8 8 8
21 23 24 20 21 23 22 20 18 18 17 14 11 7 5 5 6 5 4 4 4 4 4 4 5 5 6 5 6 7 6 7 7
24 23 21 20 21 21 22 20 18 17 16 14 11 9 6 4 4 3 3 2 1 2 2 3 3 4 4 5 6 6 7 7 7
26 23 21 22 22 22 23 20 18 17 15 13 12 10 7 5 4 2 1 1 1 1 0 1 2 3 3 3 5 6 6 5 5
25 24 24 25 26 25 23 22 19 17 15 14 13 11 8 6 3 2 2 3 3 3 2 1 1 2 1 1 2 4 5 5 5
28 28 28 28 30 28 25 22 19 17 16 14 13 12 9 7 5 4 4 4 4 5 4 3 3 2 1 2 4 5 4 4 5
31 29 29 30 29 29 26 23 20 18 17 15 13 12 10 8 9 7 4 6 5 5 5 5 5 4 4 5 6 6 6 6 7
26 29 30 28 30 29 26 23 20 19 17 15 15 13 11 9 10 9 7 7 7 5 5 6 6 7 7 7 8 7 7 7 8
17 27 31 30 26 27 25 23 20 19 18 16 14 14 13 13 14 11 9 10 8 7 6 5 7 8 9 10 10 11 11 9 9
29 25 26 30 29 28 27 25 24 21 20 17 16 16 15 15 14 12 11 9 8 8 9 10 11 13 13 13 13 13 13 12 11
31 31 27 29 31 31 30 27 25 23 21 19 17 17 17 17 15 16 14 14 14 12 13 13 14 14 13 12 11 12 13 12 12
33 34 31 28 31 32 29 27 25 25 22 20 19 19 19 20 18 16 18 15 16 16 15 15 16 16 13 11 10 10 12 13 13
35 33 31 33 34 33 30 28 28 27 23 22 21 22 20 21 20 16 15 18 17 20 18 18 18 16 13 11 11 10 10 11 12
37 36 36 35 35 34 33 31 29 26 24 24 19 14 20 23 22 20 21 22 19 21 22 21 20 16 14 13 12 11 10 10 13
36 35 36 40 38 36 34 32 28 28 26 25 16 9 12 16 22 23 25 26 23 24 25 23 18 15 14 14 12 12 11 10 11
38 36 36 38 39 37 35 33 31 28 29 29 27 22 10 12 9 26 27 25 26 28 26 21 16 15 15 14 13 12 12 10 11
38 38 38 39 38 35 35 34 34 32 30 29 25 29 31 20 15 14 23 27 24 23 27 20 16 14 14 15 14 13 12 12 13

GFSFLT1_850_spd_099.txt.gz
Wind_Speed
16 18 17 19 18 14 13 13 18 16 13 12 11 10 8 9 8 7 7 7 8 8 8 8 8 8 8 8 8 8 8 8 8
17 20 19 18 16 15 12 18 19 16 13 11 9 8 8 7 7 7 6 6 7 7 7 7 8 7 8 8 8 8 8 8 9
19 21 20 18 16 16 15 20 19 16 14 11 8 7 6 6 6 6 6 6 6 6 6 6 6 7 7 7 7 7 7 8 9
19 22 20 17 16 17 19 20 19 17 15 12 9 8 7 6 6 6 5 5 5 4 4 4 5 5 6 6 6 6 7 8 8
19 22 20 18 15 20 22 21 19 18 16 12 9 7 7 6 6 5 4 3 3 3 3 2 3 4 4 4 4 5 6 6 7
21 21 22 23 16 23 23 21 19 19 17 13 10 7 6 5 5 4 3 2 1 1 1 1 2 3 2 3 4 5 5 5 5
23 24 24 23 21 25 23 21 20 20 18 16 13 10 7 5 5 4 3 3 2 2 2 1 1 2 1 2 2 4 4 4 5
26 25 25 22 23 23 25 24 22 20 18 16 14 12 10 8 6 5 4 3 3 3 3 3 3 3 3 2 3 4 4 4 4
27 28 26 23 27 26 27 26 23 21 19 18 16 15 12 9 8 6 6 4 5 5 4 5 4 4 3 4 6 5 5 5 5
27 28 27 26 29 30 29 26 24 22 20 19 18 16 14 12 11 10 8 6 6 6 6 6 6 5 6 6 6 7 7 7 7
23 33 33 31 29 31 29 26 24 23 21 20 19 17 17 14 12 12 11 8 8 7 7 7 6 7 7 8 8 8 9 9 9
24 20 33 30 28 28 28 27 25 24 23 22 20 19 17 17 14 13 13 12 10 9 8 8 5 7 9 9 10 11 12 12 11
28 26 21 29 27 27 27 29 28 27 25 24 22 21 20 18 17 17 16 14 12 10 9 9 7 9 11 12 13 13 14 13 13
28 27 23 19 30 25 30 32 31 29 27 25 22 20 20 19 18 19 18 15 15 14 12 13 12 12 14 14 14 13 13 13 13
31 30 27 21 29 34 34 34 32 31 28 25 23 22 22 21 21 22 19 19 19 21 17 16 15 13 15 16 14 13 11 11 13
34 33 35 33 37 36 34 36 35 34 28 25 24 25 24 24 25 24 23 22 23 20 19 18 18 16 16 16 15 14 12 11 12
31 34 35 32 36 38 35 37 37 34 30 29 26 22 27 29 27 25 25 23 21 22 21 21 21 21 18 17 17 15 12 11 13
35 36 38 38 39 36 38 40 39 36 34 34 24 11 13 16 28 28 26 26 24 24 23 24 24 24 20 18 16 14 14 13 11
38 40 44 41 40 39 40 40 38 37 39 36 35 27 12 11 11 25 29 30 29 27 28 28 27 24 22 20 16 15 14 14 11
30 36 46 43 40 40 39 39 40 43 43 38 39 39 32 20 18 20 20 31 29 33 31 32 31 26 20 20 15 15 13 12 13

GFSFLT1_850_spd_102.txt.gz
Wind_Speed
14 15 16 15 16 15 12 8 14 13 12 11 11 10 9 9 8 7 7 7 7 7 7 8 8 7 7 7 7 8 9 9 10
15 17 17 17 17 14 10 11 15 14 12 11 10 8 8 8 7 6 6 6 7 7 6 7 7 7 7 7 7 8 8 9 9
16 18 18 18 17 14 11 15 16 14 12 10 9 8 7 7 6 6 6 6 6 5 5 5 5 6 6 6 7 7 8 8 7
18 18 19 19 17 15 14 18 17 15 12 10 8 7 6 6 6 6 5 5 5 4 3 3 4 5 5 5 5 6 7 7 7
19 18 19 18 17 16 18 20 19 16 14 11 8 8 7 6 6 5 4 4 3 2 2 2 3 3 3 4 5 5 6 6 6
19 19 20 19 18 18 20 22 20 18 16 13 10 8 7 6 5 5 4 3 2 1 1 1 1 2 2 3 4 5 5 5 6
20 20 21 20 19 14 23 23 21 21 19 16 13 10 8 7 6 5 5 4 4 3 2 1 1 1 1 1 2 4 4 4 5
22 22 23 23 21 18 23 24 22 22 21 17 15 12 10 8 8 7 6 5 5 5 4 4 3 3 2 2 2 3 3 3 4
24 25 25 24 23 21 25 25 23 23 22 20 17 15 13 11 10 9 9 8 7 6 6 6 5 5 4 3 4 5 4 4 3
22 26 28 27 24 24 25 25 25 24 23 22 20 18 16 14 12 12 11 9 8 7 8 8 7 7 6 6 5 6 6 6 6
18 25 29 29 27 24 28 27 27 25 24 23 22 20 18 16 15 14 14 12 10 9 9 9 9 8 8 7 7 7 8 9 9
22 23 28 28 30 28 30 30 30 26 25 25 24 21 20 19 18 16 16 15 13 11 11 10 9 8 9 8 9 9 12 12 12
25 28 29 30 33 33 30 32 31 28 27 27 26 24 22 22 21 19 18 17 16 14 13 11 11 10 11 11 12 14 13 14 13
28 29 30 27 27 37 31 31 28 29 29 29 27 27 25 24 23 23 22 20 18 17 15 13 14 14 14 15 16 16 14 12 13
24 26 30 31 29 31 32 37 29 31 30 30 29 27 26 24 25 25 22 22 21 19 19 18 17 16 15 17 17 17 15 12 10
21 25 28 30 28 26 26 28 26 30 35 33 32 30 29 28 28 27 26 26 24 23 22 21 21 19 17 17 18 16 15 14 11
25 26 29 31 30 29 30 37 37 33 35 36 32 29 31 32 33 31 31 29 26 26 24 22 22 21 20 18 19 18 16 15 13
29 30 35 32 31 37 40 38 40 40 37 44 35 15 18 24 34 37 35 31 30 27 25 24 23 23 23 20 21 18 18 15 13
27 31 34 42 39 38 40 43 44 43 44 45 42 36 20 13 15 25 33 33 32 30 27 28 25 25 26 26 22 20 18 15 13
26 32 37 37 40 44 43 40 43 42 43 44 42 41 42 34 20 15 21 29 32 33 33 28 27 30 29 29 26 21 20 16 16

GFSFLT1_850_spd_105.txt.gz
Wind_Speed
12 12 13 14 14 17 10 7 9 11 12 11 10 10 9 8 8 7 7 7 7 7 7 7 7 7 7 8 8 8 8 7 7
13 14 15 15 16 15 11 8 12 13 12 11 10 8 8 8 7 6 6 6 7 6 6 6 6 6 7 7 8 7 7 7 7
14 15 16 16 17 14 11 11 14 14 13 11 9 8 7 7 7 6 6 6 6 5 4 5 5 5 5 6 6 6 6 7 7
15 16 17 17 18 16 12 12 16 15 14 12 10 8 7 7 6 6 6 6 5 4 3 3 3 3 4 5 5 5 6 6 7
17 16 17 18 18 16 14 14 18 16 14 12 10 9 7 7 6 6 6 5 5 3 2 2 1 2 3 3 4 5 5 5 6
19 18 17 18 18 16 15 17 19 18 15 13 11 10 9 7 6 6 6 5 4 3 2 1 0 1 1 2 3 3 3 4 5
20 19 19 20 19 17 17 20 22 20 19 16 14 12 10 9 8 7 6 6 5 5 4 3 2 1 1 1 1 2 2 2 3
22 21 21 21 21 19 13 22 25 23 22 19 16 14 12 11 10 9 8 7 7 7 6 5 4 4 3 3 3 2 1 1 1
22 23 24 24 24 21 19 21 26 25 24 22 19 17 15 13 12 11 11 10 9 9 8 7 7 6 5 4 4 4 4 3 3
18 20 24 26 26 24 21 21 26 25 25 24 23 20 18 16 14 13 12 11 11 10 10 9 9 8 7 7 6 6 5 6 5
14 17 21 27 27 26 23 22 27 26 25 26 25 23 21 19 17 16 16 15 13 12 12 11 10 10 10 8 7 7 8 8 9
13 14 18 20 25 27 26 25 28 27 27 27 26 25 23 22 21 19 18 17 17 15 14 13 12 11 10 8 8 8 10 12 12
19 21 20 22 26 28 26 26 29 31 29 29 28 28 25 25 23 22 21 20 20 19 17 15 14 13 11 10 10 11 14 15 14
25 26 25 24 27 29 28 28 33 28 30 28 29 29 28 27 26 26 25 23 22 21 20 18 17 15 15 14 13 14 13 13 12
24 25 23 24 26 29 29 30 34 35 30 32 34 31 29 29 29 29 28 27 26 25 22 22 21 18 17 17 16 14 14 13 12
21 20 21 20 26 28 29 27 29 33 37 32 33 34 34 32 31 33 30 30 28 26 26 25 25 24 22 19 17 16 15 14 13
21 21 22 21 23 24 26 26 29 36 34 33 31 28 33 36 40 37 35 33 31 30 30 28 27 25 24 22 20 18 17 16 15
21 23 24 23 24 26 27 27 28 30 35 35 30 17 21 29 32 38 38 36 35 33 32 32 29 28 27 23 23 21 19 18 17
22 22 25 26 27 30 32 29 32 33 35 37 40 40 29 19 21 27 33 36 39 39 37 34 31 29 29 28 25 24 22 20 19
23 23 21 25 29 31 33 35 38 41 44 48 45 46 51 46 30 25 24 22 27 39 39 34 34 33 31 28 29 26 25 24 21

GFSFLT1_850_spd_108.txt.gz
Wind_Speed
10 10 12 13 14 15 11 9 8 10 12 12 11 9 8 8 7 6 6 6 5 5 5 5 5 5 5 5 6 5 5 5 5
11 12 13 14 14 16 11 7 9 11 11 11 10 9 8 7 6 6 6 5 5 5 4 4 4 4 4 4 5 5 5 5 5
13 14 14 15 15 18 12 8 10 12 11 11 9 9 7 7 6 6 6 6 5 4 3 2 2 3 3 3 4 4 4 5 6
15 15 15 16 16 17 13 9 12 13 12 11 9 8 8 7 7 6 5 6 5 4 2 1 1 2 2 2 2 3 4 5 5
17 17 17 18 17 18 14 12 13 16 14 12 10 9 8 7 8 7 7 6 5 4 3 2 1 1 1 1 1 2 3 4 4
17 18 18 18 18 19 17 14 15 18 16 14 13 11 8 8 8 7 8 7 6 5 4 3 2 2 2 1 1 1 1 2 3
17 18 18 18 20 20 18 16 17 19 18 17 16 14 11 10 9 8 9 9 8 7 7 5 4 3 3 3 3 1 1 1 1
17 17 20 21 22 22 21 18 20 23 17 16 16 15 13 12 12 12 11 10 10 10 9 8 7 6 5 5 6 4 3 3 2
16 17 19 21 21 22 19 16 17 21 23 19 18 16 16 13 12 13 13 12 11 11 11 11 10 9 8 7 7 7 6 5 5
16 19 21 20 22 22 21 17 15 20 25 25 22 19 18 15 13 13 15 14 14 13 13 13 13 12 10 9 9 8 7 7 7
17 17 20 20 22 25 25 22 21 20 21 22 25 24 23 21 17 17 15 17 16 16 15 15 15 13 12 11 10 9 9 9 10
15 14 16 15 18 22 26 27 26 21 24 22 19 20 20 22 22 22 21 20 19 19 18 17 16 16 15 14 13 11 11 12 13
17 16 17 18 18 20 25 27 28 23 26 27 27 28 23 23 19 20 23 23 22 21 22 20 19 18 17 15 13 12 14 14 16
22 21 21 18 20 23 25 27 28 27 26 33 34 29 27 26 23 21 22 24 25 24 24 23 22 21 20 18 17 16 16 16 16
26 26 24 23 24 25 25 29 30 29 27 28 31 37 33 26 23 23 21 21 24 27 27 26 26 25 24 21 20 19 19 17 16
34 29 24 24 23 22 24 27 29 29 28 32 39 40 41 40 33 29 28 28 25 23 29 30 30 29 27 25 23 21 21 19 17
27 23 22 21 19 20 23 25 28 28 23 26 22 24 33 41 43 38 34 34 34 36 35 34 32 31 31 29 28 25 22 21 19
20 20 22 22 20 19 22 25 24 21 21 26 24 12 19 25 32 39 39 37 39 40 43 39 35 34 34 32 29 29 27 25 22
17 18 20 21 21 22 23 24 25 26 29 30 30 36 24 12 21 30 27 35 38 41 41 43 39 36 35 33 33 31 28 28 25
18 20 21 21 21 21 23 26 29 32 35 37 39 37 40 41 38 25 22 28 30 33 38 38 38 40 36 36 34 31 28 29 27

GFSFLT1_850_spd_111.txt.gz
Wind_Speed
8 8 8 12 13 13 11 9 6 8 9 10 9 8 7 7 5 4 7 6 3 4 3 3 3 3 3 4 4 4 5 5 5
9 10 10 12 13 13 12 9 8 10 10 9 8 7 7 6 4 4 5 4 4 3 2 2 2 3 3 3 4 4 5 5 5
12 12 12 13 13 12 15 9 9 12 11 10 8 7 7 6 4 5 5 4 5 3 2 1 1 1 2 2 3 4 4 5 5
14 15 14 15 15 14 18 12 10 13 12 11 10 8 7 8 5 4 5 6 5 4 3 1 0 0 0 1 2 2 3 4 4
16 16 16 17 17 16 18 15 11 13 13 13 11 10 9 7 9 6 9 7 6 5 4 2 1 1 1 1 0 1 2 2 3
17 19 18 18 17 17 19 17 13 15 16 15 13 12 10 5 8 6 12 9 8 6 5 4 3 3 3 2 2 1 1 1 1
15 18 20 19 18 19 19 18 15 15 18 18 17 15 11 10 9 9 12 10 10 8 7 6 5 5 4 4 4 3 2 2 1
17 19 22 21 21 21 22 22 20 18 17 14 18 18 13 12 11 13 13 12 11 10 9 8 8 7 6 7 7 6 5 4 3
17 15 18 20 22 23 23 22 19 17 20 16 16 15 13 14 12 13 15 14 13 12 12 11 11 10 9 9 9 9 8 7 6
16 17 18 20 20 22 23 22 17 17 18 20 19 17 16 14 13 13 16 16 15 14 14 14 14 13 12 11 10 10 9 9 8
18 18 22 22 22 21 20 23 24 20 19 20 20 18 19 17 16 15 15 17 18 17 16 16 15 15 14 13 12 11 11 10 10
16 17 17 17 19 18 21 23 23 23 25 21 17 19 20 20 18 18 17 17 18 19 19 18 18 17 18 17 16 14 13 14 14
18 14 14 14 13 15 19 22 27 29 28 21 27 27 26 24 20 19 20 20 20 20 21 20 20 19 19 18 18 18 16 15 15
20 19 14 14 14 16 18 20 22 24 25 27 26 28 34 32 28 26 23 24 25 22 21 22 21 23 22 21 20 20 20 18 16
21 23 16 17 16 21 24 23 25 25 26 26 28 28 29 31 32 27 27 26 24 25 26 25 23 23 24 24 23 22 21 20 18
19 17 11 14 29 29 24 21 22 25 27 24 25 26 27 32 39 39 32 28 26 26 26 25 25 25 26 27 27 26 23 22 22
25 26 24 22 31 27 23 23 25 28 28 29 24 18 26 31 37 41 46 42 34 34 32 32 30 26 28 29 29 29 27 25 25
31 30 27 28 28 24 22 22 23 26 25 26 25 9 14 17 22 29 35 49 49 42 39 38 36 34 32 32 32 31 30 28 28
21 21 23 23 24 22 23 21 20 24 28 24 25 28 23 11 15 19 24 25 36 41 41 41 40 41 38 40 37 34 31 30 28
11 14 18 19 20 21 23 23 24 27 28 30 31 30 31 32 34 26 24 22 31 31 28 30 39 42 39 36 37 37 33 30 28

GFSFLT1_850_spd_114.txt.gz
Wind_Speed
7 6 6 9 10 10 9 7 4 5 7 8 8 8 8 8 6 5 8 3 2 2 1 2 3 3 4 4 4 4 4 4 4
8 8 8 9 10 9 11 9 6 7 8 9 8 7 8 7 5 2 7 4 3 2 1 1 1 2 3 3 3 4 4 4 5
11 10 10 10 10 11 12 11 7 9 9 10 9 8 8 7 5 6 7 4 4 3 2 1 0 1 2 2 2 3 3 4 4
12 12 12 12 12 12 12 15 10 10 12 11 10 9 9 9 6 7 7 6 6 5 3 2 1 0 0 1 1 2 2 3 3
15 14 15 14 14 15 15 16 13 11 14 13 12 11 10 9 8 9 11 7 7 7 5 4 2 2 1 1 0 1 1 2 2
17 17 17 16 16 16 16 17 15 13 15 15 14 13 11 11 8 9 11 10 10 9 7 6 5 4 3 2 2 1 1 1 1
14 13 15 15 16 17 17 19 18 16 16 18 17 16 13 11 6 11 13 13 12 10 9 8 7 6 5 5 4 4 3 3 2
12 18 19 19 19 19 19 21 22 21 17 19 20 18 16 12 13 16 16 15 14 13 11 10 9 8 8 7 7 6 5 4 4
17 20 21 22 20 20 22 23 23 22 20 20 19 17 19 17 14 17 18 16 16 15 13 12 12 11 10 9 8 8 8 7 7
23 21 18 17 21 19 21 24 23 22 21 18 20 19 15 14 18 19 20 18 17 17 16 15 14 13 13 12 11 10 10 9 9
22 21 22 25 24 20 19 22 25 23 21 21 21 23 23 20 19 19 21 21 19 19 18 17 17 15 14 14 14 12 11 11 11
26 24 23 25 25 22 22 22 22 23 25 27 26 28 29 24 25 21 23 25 24 21 21 20 19 18 17 17 16 16 14 14 13
29 27 25 22 20 17 18 21 23 24 26 29 28 28 27 26 27 26 28 30 30 27 23 22 21 21 20 19 19 19 18 18 17
29 27 24 23 20 15 13 17 19 20 24 27 27 26 25 29 34 31 29 26 28 27 26 24 23 23 22 22 21 20 20 20 19
31 31 27 24 19 16 15 15 18 20 21 23 24 24 27 27 30 35 35 33 30 31 30 29 28 25 24 24 24 23 22 22 22
29 28 26 25 21 18 30 18 23 21 19 20 25 26 27 30 33 31 34 39 36 34 31 30 30 28 27 25 25 25 25 23 24
33 28 27 23 20 18 21 18 22 23 21 23 19 19 23 29 32 33 34 36 39 37 34 32 35 33 28 25 24 24 24 24 26
36 29 27 24 22 23 25 23 24 23 23 24 21 7 12 16 21 25 25 27 31 38 45 41 37 37 35 32 32 29 26 25 26
35 29 27 28 24 25 24 23 24 21 24 21 25 25 25 9 9 14 19 22 26 27 28 35 48 49 44 42 39 36 33 27 29
38 24 22 20 20 19 20 21 22 23 25 25 25 26 27 28 33 28 31 31 25 26 31 32 30 32 40 45 44 40 31 29 31

GFSFLT1_850_spd_117.txt.gz
Wind_Speed
5 5 5 7 8 8 7 7 5 4 5 6 9 11 11 9 8 5 8 3 1 1 2 1 2 2 3 3 3 3 3 3 4
9 7 7 8 10 8 10 9 7 6 7 8 8 9 11 9 7 6 6 4 3 3 2 1 1 1 2 2 2 2 3 3 4
10 10 9 9 10 11 11 12 9 8 9 9 9 9 10 9 8 7 6 4 4 5 3 2 1 1 2 1 1 2 2 3 4
12 12 12 12 11 12 13 14 13 10 11 12 11 11 12 11 9 8 8 6 6 6 5 4 3 2 2 2 1 1 2 3 3
15 15 14 14 14 14 15 15 17 13 13 15 14 13 13 13 11 9 8 7 7 7 7 6 5 4 3 3 3 2 2 3 3
18 18 17 16 16 16 17 17 17 18 15 16 16 16 15 15 14 11 12 10 10 9 9 7 6 5 5 4 4 4 3 4 3
20 19 17 14 14 17 18 19 20 21 19 17 19 18 17 16 15 12 11 12 11 11 11 10 9 8 7 6 6 5 4 4 4
19 18 18 15 17 18 18 20 23 24 22 19 20 20 19 17 18 16 13 14 13 13 13 12 11 10 9 9 8 7 7 6 7
19 16 18 20 22 22 23 22 24 24 24 22 21 22 22 20 20 18 17 17 16 16 15 14 13 13 12 11 10 9 10 10 9
23 22 23 24 23 24 23 22 25 25 25 24 24 24 21 17 23 21 19 20 18 18 18 17 15 15 14 14 13 12 12 12 12
29 30 29 31 28 25 23 22 23 25 25 24 24 24 24 19 19 23 23 23 23 21 19 20 18 17 16 16 16 15 14 14 14
32 31 31 28 30 29 27 25 22 23 24 26 26 24 26 24 24 24 24 25 26 25 22 21 22 21 19 18 18 17 16 15 15
31 33 33 30 32 32 28 26 25 26 26 27 31 31 32 34 32 28 25 27 27 27 26 23 23 24 23 22 20 20 20 20 20
36 35 36 35 33 31 31 26 24 23 22 24 28 32 35 28 31 36 31 32 32 30 30 29 27 26 26 26 25 23 23 22 22
36 34 35 36 34 31 30 25 22 21 17 16 20 23 23 26 27 29 33 36 33 32 31 30 31 29 27 27 28 26 26 25 24
35 38 39 40 38 33 25 18 17 16 16 16 18 25 26 24 24 28 31 35 36 36 35 36 36 34 31 30 30 29 27 28 27
31 35 39 37 38 34 28 22 21 21 23 20 20 17 24 24 26 27 29 31 31 34 36 40 39 39 35 33 29 30 28 29 30
37 37 37 34 36 35 31 25 21 22 20 21 17 9 15 15 18 24 25 23 24 25 29 34 39 40 38 37 35 33 29 29 30
31 37 40 38 33 27 27 23 20 22 20 19 21 26 27 15 11 18 20 19 20 22 23 25 27 33 44 42 39 39 38 34 34
29 25 35 40 32 30 25 24 22 19 17 21 21 21 24 27 29 21 22 25 29 29 29 29 29 30 30 35 47 51 51 45 41

GFSFLT1_850_spd_120.txt.gz
Wind_Speed
7 6 6 8 9 9 8 10 7 6 6 8 11 13 11 8 6 4 3 2 3 2 2 1 1 1 2 3 2 1 1 2 3
9 9 8 10 10 10 11 11 10 7 8 10 11 13 13 11 9 7 5 6 5 4 3 2 1 1 1 1 1 1 1 2 3
11 11 11 11 11 13 13 14 12 10 10 11 13 13 14 14 11 9 6 7 6 6 5 4 3 3 2 2 2 1 1 2 3
15 14 13 13 13 14 15 15 16 13 12 13 14 14 15 15 13 11 9 8 7 7 7 6 5 4 4 3 2 2 2 3 3
18 17 16 15 15 16 16 17 17 18 15 15 16 16 16 17 16 13 11 9 8 8 8 8 7 6 5 5 4 4 3 4 3
20 20 19 18 17 17 19 20 20 20 21 17 19 19 18 18 18 16 13 12 10 10 10 10 9 8 7 7 6 6 5 5 5
22 22 22 21 20 19 21 21 22 23 24 22 20 22 21 21 21 19 16 14 14 12 12 12 11 10 9 9 8 7 7 7 7
22 23 23 24 23 23 21 22 24 26 25 27 24 22 23 22 22 22 19 16 15 15 13 14 14 13 11 11 10 9 9 9 9
26 23 22 22 25 24 21 23 23 25 27 28 27 24 24 25 24 24 23 21 17 18 16 16 16 15 14 13 12 12 11 12 12
30 28 27 26 26 25 26 27 28 28 28 29 30 28 26 26 28 27 27 25 21 20 20 18 18 18 17 16 15 14 14 13 14
35 35 32 31 32 31 30 31 29 28 28 29 31 31 30 28 28 26 30 27 25 23 22 21 20 20 19 18 18 17 16 15 15
34 34 36 37 36 35 34 34 30 28 26 29 31 32 32 30 30 27 26 29 27 26 26 24 22 22 21 20 19 19 19 18 17
30 32 34 34 34 36 37 35 34 32 29 28 29 32 32 31 30 30 30 31 29 28 28 27 25 23 23 24 23 22 20 20 20
31 31 33 34 37 38 38 37 35 34 32 31 30 32 34 39 38 34 32 30 30 30 29 29 28 27 26 25 26 25 25 25 23
30 32 34 33 36 40 39 39 37 35 33 32 29 28 25 22 20 40 38 37 29 27 32 30 33 32 29 25 25 27 28 28 27
30 31 32 32 34 37 38 37 37 35 29 24 24 28 27 21 20 19 23 27 30 35 36 34 33 34 32 31 28 28 29 30 30
29 34 35 32 31 37 40 39 38 35 26 25 22 18 20 25 24 20 24 23 24 30 37 42 40 38 39 38 34 32 31 30 31
27 29 32 34 31 31 37 42 41 33 30 28 22 8 11 10 17 23 22 21 23 27 26 31 34 37 38 36 38 37 36 32 31
23 20 26 28 31 29 35 36 34 31 30 23 23 25 19 8 10 17 18 21 22 23 21 23 25 24 27 30 34 39 37 37 35
13 9 15 21 20 31 29 41 37 31 30 29 23 20 18 15 19 17 19 19 24 24 22 27 27 28 27 28 30 30 32 38 40

GFSFLT1_850_spd_123.txt.gz
Wind_Speed
9 9 8 9 10 10 11 10 11 8 7 9 11 12 10 8 6 5 7 4 3 3 3 2 1 1 1 1 1 1 1 2 3
12 11 11 11 11 12 12 13 13 10 9 10 12 14 13 11 9 7 6 6 5 5 5 4 3 3 2 2 2 1 1 2 3
14 13 13 13 12 13 15 15 16 13 11 11 13 15 16 14 12 10 9 7 7 7 7 6 5 4 4 3 3 2 1 2 3
17 17 16 15 15 15 16 18 17 18 15 13 15 17 18 17 15 13 11 9 8 9 8 8 7 6 5 5 4 3 3 3 3
20 20 20 18 18 18 18 19 19 19 20 16 16 18 20 20 19 17 14 13 11 10 10 9 9 8 7 6 6 5 5 4 4
22 22 21 21 21 20 21 21 22 21 21 22 19 20 22 22 21 20 17 15 13 12 11 11 11 10 9 8 8 7 6 6 6
23 25 25 23 23 23 24 25 25 25 26 25 27 24 24 24 23 22 20 18 16 15 13 13 13 12 12 11 9 9 9 8 9
25 26 26 27 26 27 27 27 28 29 29 28 29 29 25 27 26 25 24 22 19 18 16 14 15 15 14 13 12 11 11 11 11
27 28 27 28 26 26 28 29 29 28 28 29 30 31 30 27 27 28 27 26 23 20 19 17 17 17 17 15 14 14 13 13 13
32 33 31 31 31 29 29 31 31 30 30 30 30 32 33 30 28 29 28 29 27 25 22 20 19 19 19 19 17 16 16 15 15
31 34 37 36 36 35 35 36 35 34 34 33 33 34 34 34 32 31 31 31 31 29 27 24 22 20 21 21 20 19 18 18 17
31 34 35 35 36 37 40 39 38 37 35 36 34 34 35 35 37 33 31 30 34 33 31 28 26 23 22 22 23 22 21 20 19
33 34 36 36 34 33 35 37 39 37 37 37 35 34 35 36 36 35 31 32 30 36 32 31 29 27 25 23 23 24 22 20 21
29 32 34 32 35 35 33 36 38 39 38 36 36 36 35 34 36 34 33 36 37 36 35 33 30 29 28 26 25 24 24 24 23
25 30 33 33 33 36 35 34 36 39 39 36 38 37 35 34 36 35 34 22 40 39 41 38 35 35 32 30 29 27 27 27 27
25 28 32 32 36 35 33 32 32 34 35 36 37 37 36 34 31 28 29 28 26 38 34 40 39 35 31 34 34 30 28 27 28
25 27 31 31 30 33 34 28 29 33 34 35 33 22 29 32 31 30 27 21 22 28 31 30 34 37 32 33 33 36 34 31 31
26 28 29 27 25 29 31 28 26 26 32 34 30 11 14 18 22 27 29 27 25 24 20 25 27 31 34 38 38 40 40 40 36
26 25 27 19 18 21 22 25 24 21 28 33 37 31 14 10 7 12 17 21 24 21 21 22 28 23 22 23 24 27 30 30 34
17 18 19 15 9 14 15 17 21 28 25 31 28 32 37 36 23 18 20 20 18 23 23 22 22 19 21 22 23 23 23 27 29